GFSNW_250_spd_057.txt.gz
Wind_Speed
131 128 122 116 113 111 104 95 92 93 94 85 73 64 63 63 65 62 60 59 58 58 55 52 47 40 31 34 32 29 26 28 29 31 27 29 31 31 27 24 27 28 33 31
117 125 128 122 119 115 110 100 95 96 92 84 71 67 64 63 64 63 62 62 60 55 56 54 49 42 33 35 34 33 30 30 28 26 28 28 26 25 26 27 30 33 33 36
109 115 116 124 122 121 117 110 104 100 94 79 73 70 66 65 67 65 63 63 60 55 57 56 53 50 38 35 37 35 33 31 31 29 29 26 26 29 31 31 31 36 31 36
103 109 107 112 120 122 123 118 108 100 90 79 73 70 68 67 66 64 63 63 61 57 57 56 56 56 41 36 38 37 32 33 34 33 31 28 32 30 31 31 33 34 33 29
96 99 103 105 111 118 122 118 105 98 89 85 79 74 70 69 70 67 66 63 61 59 58 56 53 49 40 39 38 36 33 34 32 33 33 30 31 30 31 30 30 29 28 26
91 94 95 102 108 111 106 102 98 96 91 87 81 73 72 71 72 69 67 63 61 60 60 59 56 54 45 39 42 39 33 35 35 35 32 30 30 31 27 28 29 29 30 30
83 86 90 95 99 96 97 93 94 94 91 86 80 76 75 73 71 68 67 65 62 61 60 63 62 61 49 40 45 43 35 35 36 36 31 31 33 30 29 30 31 30 33 34
79 81 86 87 90 95 93 95 95 90 92 87 81 77 73 75 73 68 65 61 62 61 63 62 64 61 52 41 49 44 39 38 37 36 35 34 33 33 32 33 31 34 37 37
71 76 80 84 85 88 90 93 92 86 86 83 84 79 77 74 69 68 60 61 63 64 63 64 66 63 55 42 50 50 41 41 38 38 37 35 35 36 36 32 32 39 39 39
63 70 74 80 81 82 87 90 88 83 78 79 81 78 73 76 72 66 64 64 66 66 65 70 57 54 52 41 51 49 45 40 40 41 39 38 37 40 37 36 37 39 39 41
58 64 71 73 76 79 85 87 87 82 78 70 71 76 75 75 71 66 63 65 64 66 62 62 64 63 53 43 55 49 44 41 42 42 42 40 40 40 41 39 40 41 43 44
58 63 66 69 72 76 80 83 83 80 74 72 71 70 69 68 66 64 64 63 62 59 62 64 65 61 57 49 54 51 45 44 44 43 43 41 40 43 46 43 43 45 48 49
55 59 61 66 70 70 72 77 79 76 76 74 72 71 70 68 67 65 65 64 64 67 58 61 59 54 54 51 56 53 47 46 47 46 43 42 42 48 49 48 48 50 51 54
51 52 61 66 66 70 70 68 72 74 75 76 74 75 78 71 67 64 66 62 56 47 48 54 56 52 51 52 57 54 49 48 47 49 44 44 46 47 50 52 52 53 55 56
51 50 57 63 67 68 66 64 66 68 72 74 75 74 75 71 66 67 60 49 44 49 54 47 45 48 50 54 58 54 48 49 50 48 47 46 47 49 52 53 54 56 57 59
54 55 57 62 65 65 67 62 61 62 66 69 67 68 63 57 51 55 52 51 58 49 50 48 43 45 50 56 59 53 49 51 51 50 50 48 49 51 54 55 56 58 60 63
58 59 60 61 61 60 56 57 60 61 56 58 58 60 54 50 52 56 59 57 62 59 59 52 51 51 55 59 60 53 51 53 52 52 54 53 56 55 56 56 58 60 63 67
63 63 61 59 56 57 61 60 57 57 53 53 49 46 52 52 51 53 51 53 56 64 65 57 53 54 56 59 59 55 54 56 54 55 55 55 56 56 58 61 64 65 68 71
56 58 60 60 61 60 60 57 53 54 56 52 51 46 44 46 44 45 48 50 53 52 49 48 51 53 56 56 60 60 58 54 56 58 58 59 60 62 63 66 68 70 73 76
51 54 57 62 62 54 49 53 56 56 56 58 60 55 48 43 42 41 44 46 45 44 45 49 51 52 54 57 59 59 58 57 58 60 60 62 65 66 70 71 73 76 78 82
46 47 48 52 57 58 57 58 58 58 59 62 59 55 48 48 45 42 44 45 45 44 46 49 50 50 52 54 58 60 59 57 58 59 61 64 67 70 72 74 77 80 82 84
38 42 47 51 53 53 53 52 47 44 44 49 50 49 49 47 38 37 39 41 43 41 43 46 46 49 53 57 59 61 60 60 60 62 64 67 70 72 75 78 81 84 87 89
37 36 36 37 37 31 32 33 35 41 42 42 41 41 41 41 38 34 36 39 41 40 41 41 47 54 56 58 60 63 64 64 65 66 69 73 75 78 81 84 85 86 89 92
29 28 30 30 29 28 32 37 36 35 36 37 37 35 32 31 31 33 34 34 37 39 40 45 51 58 60 60 61 63 65 69 71 75 78 79 80 79 81 85 89 92 96 99
32 31 28 26 27 29 31 30 28 30 31 34 34 31 32 33 33 31 31 33 35 42 49 52 55 59 63 66 69 70 73 74 75 77 77 79 83 87 91 93 94 96 98 101
35 36 35 35 34 34 34 35 36 34 36 36 35 35 34 35 35 36 35 36 38 41 44 49 55 61 66 70 71 74 76 78 80 82 85 88 89 88 89 93 95 97 100 103
32 33 34 35 36 37 37 38 36 36 38 37 35 36 38 40 41 43 44 45 47 48 49 50 50 52 54 57 60 63 67 71 74 78 82 85 88 91 93 95 97 101 104 104

GFSNW_250_spd_063.txt.gz
Wind_Speed
100 106 117 116 116 119 119 113 105 100 102 99 85 73 71 70 72 65 61 58 55 54 53 50 44 47 45 44 39 37 34 36 34 22 19 25 25 25 26 29 27 24 24 24
91 99 109 118 118 123 121 120 113 109 107 97 75 71 72 73 74 66 62 59 55 53 55 52 49 52 47 45 41 38 36 37 35 27 21 25 26 29 28 26 25 24 24 24
86 92 101 111 116 119 123 122 124 119 111 92 81 75 72 69 73 69 65 62 58 55 55 53 52 54 49 47 41 41 36 38 37 35 27 25 31 31 30 28 22 25 24 23
81 86 93 103 112 116 120 121 117 113 107 93 84 78 73 73 72 71 70 65 61 59 57 57 51 50 49 48 43 41 39 40 41 38 32 27 33 33 34 29 27 23 23 24
75 80 89 96 105 109 115 110 109 111 102 101 94 83 73 70 74 70 67 63 62 59 59 58 52 52 49 49 46 42 43 44 45 45 39 30 30 33 34 32 28 20 23 28
70 75 82 90 100 106 98 96 106 107 107 105 97 82 78 75 80 72 68 66 65 60 58 60 56 52 50 45 46 45 45 46 47 45 41 33 27 35 34 33 30 23 25 29
67 71 76 86 92 87 89 88 101 100 97 98 96 90 87 83 78 77 74 70 64 60 63 62 56 51 48 48 47 45 47 47 47 45 43 35 34 37 34 33 33 30 28 31
63 66 71 78 82 77 81 86 90 93 99 99 98 93 91 93 87 81 76 70 69 72 68 64 58 53 49 48 47 49 50 49 48 47 45 41 36 39 38 36 34 35 34 32
60 62 66 71 72 75 76 79 85 88 92 95 94 93 88 88 88 91 81 77 75 74 69 63 61 55 50 48 52 53 52 49 49 48 46 42 38 40 41 42 36 43 37 34
57 58 61 64 67 69 71 78 83 85 85 92 95 89 83 84 84 81 83 78 76 74 69 66 61 54 53 51 52 55 55 52 49 50 48 44 40 40 39 41 46 42 40 39
54 55 58 62 63 63 68 74 76 79 86 84 86 89 86 84 78 76 74 78 75 70 65 64 61 56 54 53 51 49 52 54 49 51 50 46 43 40 40 46 47 44 44 44
51 52 55 58 57 61 69 72 73 76 83 82 77 77 81 79 80 82 77 67 64 60 59 57 58 59 58 52 48 53 53 51 48 52 51 48 43 42 43 46 48 47 47 47
46 49 52 54 56 62 67 67 70 73 77 81 78 79 81 80 79 76 72 68 66 62 60 60 64 64 61 56 53 50 51 49 50 51 47 51 48 45 46 49 51 50 50 51
45 48 52 53 57 62 64 65 67 72 70 72 77 75 76 76 77 71 65 62 58 55 55 58 61 56 54 55 50 49 51 49 47 47 52 56 50 50 49 50 54 53 52 54
45 48 51 54 57 61 65 69 71 71 72 72 74 73 73 71 70 66 63 57 54 55 58 60 60 57 52 51 48 48 53 47 49 51 58 55 52 51 52 52 54 56 55 56
46 49 51 54 57 61 66 67 65 67 64 67 74 73 70 66 67 63 63 57 52 52 54 53 51 46 49 49 53 58 53 49 52 56 59 57 53 49 50 53 54 56 57 58
52 55 56 56 59 59 58 57 61 62 61 63 66 70 67 65 65 63 64 58 55 55 54 52 49 49 55 55 57 54 53 56 58 62 61 56 50 44 47 52 57 59 58 58
54 56 59 62 64 64 66 65 62 60 60 59 61 64 66 64 63 62 62 59 57 54 52 51 53 60 55 56 59 58 59 61 63 64 63 61 54 54 52 54 59 62 64 62
57 59 61 62 64 64 63 63 62 62 59 56 59 61 65 64 64 61 60 60 60 57 54 52 59 54 54 59 68 61 64 70 70 65 64 62 64 65 69 68 60 61 65 67
58 60 62 64 64 64 61 63 65 63 60 56 53 56 58 61 63 62 63 63 61 62 59 63 59 55 58 63 67 68 67 69 73 71 70 70 72 74 76 71 63 62 63 66
58 60 60 59 59 61 61 60 58 56 54 52 54 57 62 59 57 64 67 65 63 60 59 59 57 54 56 63 67 68 70 72 74 76 76 75 80 82 77 70 65 64 64 67
56 57 60 62 61 58 57 55 55 56 56 59 60 61 62 54 60 61 61 63 64 63 61 59 52 53 59 64 68 72 76 80 82 84 85 85 81 75 70 65 67 68 69 70
54 55 55 55 57 57 58 59 56 54 49 44 45 50 54 58 60 62 59 55 55 54 56 58 57 62 65 66 64 64 66 69 73 76 77 73 65 64 65 67 69 71 73 75
53 54 54 53 51 50 49 45 48 50 50 46 46 48 52 53 52 53 56 57 59 59 55 55 55 54 56 56 56 55 55 55 55 56 57 59 63 66 65 66 68 71 74 77
42 46 52 51 55 56 53 51 46 45 47 48 49 49 49 49 50 53 53 53 52 50 50 52 54 57 55 52 54 54 52 53 54 56 59 61 63 64 65 66 67 70 73 77
26 44 46 47 45 44 41 41 39 40 40 42 45 45 45 45 46 48 50 49 48 48 48 52 54 54 53 56 56 55 55 55 58 60 61 62 64 66 68 69 70 71 74 76
16 18 29 33 33 33 30 30 28 33 35 40 44 43 45 43 45 49 51 52 52 51 50 50 52 56 58 58 56 57 58 59 60 61 62 64 66 67 69 71 74 76 77 80

GFSNW_250_spd_066.txt.gz
Wind_Speed
84 88 91 98 102 107 110 112 109 102 108 107 96 81 75 75 78 76 71 66 58 56 50 47 43 43 43 40 40 41 42 41 37 33 30 30 21 27 19 17 21 21 27 34
80 82 87 92 101 104 107 108 109 108 114 107 86 76 77 76 78 78 73 69 63 60 54 49 47 49 47 41 42 43 42 41 39 35 32 27 31 25 25 22 23 24 23 28
76 78 83 86 96 103 106 106 112 118 114 98 90 82 74 74 74 73 70 69 65 63 56 53 50 48 49 44 41 43 44 44 39 37 34 30 32 30 27 27 24 25 28 28
71 74 77 83 92 100 106 102 108 108 104 97 88 86 79 77 75 71 70 69 64 61 57 54 52 51 48 48 45 46 46 43 38 37 36 35 34 35 26 30 27 26 30 29
67 68 72 79 86 97 104 98 95 99 97 96 91 88 81 76 76 69 64 59 57 57 54 54 54 54 52 51 49 48 47 41 37 38 37 36 34 36 34 30 32 29 27 30
64 66 70 76 85 90 89 88 88 93 93 97 96 86 81 79 78 69 62 61 63 57 54 56 57 56 54 52 49 48 45 40 40 38 41 36 38 41 35 31 28 30 29 34
62 64 68 74 74 77 84 89 85 89 84 91 90 89 88 84 81 75 72 70 65 60 62 62 58 56 54 51 48 44 41 40 40 41 43 40 44 45 39 38 31 34 34 37
59 62 64 67 69 74 80 82 77 84 85 91 97 91 90 87 88 83 80 77 73 71 67 62 57 53 50 46 45 45 43 43 43 43 42 43 44 47 45 41 38 34 42 40
57 61 63 64 63 72 74 72 73 80 83 82 97 96 92 87 86 86 81 82 78 73 68 63 56 52 50 47 50 50 46 46 48 45 45 43 44 47 49 43 40 43 40 41
55 58 60 58 61 68 66 67 70 76 74 86 94 94 91 91 90 83 84 83 81 76 71 64 58 56 55 53 50 52 48 47 48 47 47 43 45 49 51 48 44 43 41 43
52 54 54 55 58 59 56 60 68 74 73 78 85 95 94 91 91 86 84 88 83 77 73 68 65 61 61 58 55 54 49 50 50 49 51 48 48 50 50 53 50 45 40 44
49 49 50 51 50 50 53 60 70 69 72 78 84 88 93 90 91 94 91 86 84 78 74 70 68 67 67 63 60 55 50 53 57 56 51 49 47 52 52 55 50 49 43 43
45 46 47 45 47 49 55 61 64 66 75 80 83 84 90 93 93 91 87 82 80 78 75 73 72 73 69 63 59 57 54 56 59 60 54 49 48 53 55 57 52 50 47 46
42 44 44 45 46 52 55 59 64 68 71 76 83 86 87 89 89 86 83 82 78 75 72 69 67 65 67 64 60 58 56 58 60 58 51 51 51 54 56 58 55 53 51 53
40 42 42 43 48 53 59 66 71 75 75 77 84 84 86 85 85 82 81 78 75 71 66 64 62 61 59 58 58 53 54 57 60 53 53 52 54 55 58 60 58 53 52 53
39 41 44 45 50 55 60 67 70 70 73 76 82 82 83 82 82 80 78 75 73 69 67 64 63 60 59 56 51 55 57 58 59 57 56 56 57 60 63 65 62 60 56 53
40 43 46 49 51 54 55 56 61 63 67 71 75 81 81 79 77 73 70 70 70 67 64 62 61 59 56 48 51 55 58 60 61 56 58 58 62 68 66 60 64 68 63 62
43 46 49 53 57 58 62 65 65 66 69 72 75 77 78 77 73 70 68 66 66 66 62 58 57 55 55 58 59 60 64 65 64 58 58 60 66 70 66 66 68 69 68 68
46 49 51 54 56 58 63 65 67 67 63 65 66 69 72 72 70 68 65 63 63 61 60 58 58 56 51 54 59 64 66 60 59 60 59 62 68 68 69 68 67 65 68 70
44 45 47 51 57 60 61 61 61 64 63 57 56 57 65 66 66 64 62 60 59 59 60 62 61 52 55 60 62 66 64 62 55 56 62 64 68 70 68 67 67 72 76 75
50 52 54 56 58 60 60 57 53 52 53 55 57 59 60 60 60 58 56 55 56 58 58 59 58 57 62 62 64 65 63 62 63 66 67 69 72 74 74 77 80 82 84 87
45 50 51 53 55 55 57 57 57 55 54 53 51 54 54 56 55 53 55 55 58 61 62 62 57 59 62 62 64 63 64 66 67 68 70 72 76 80 81 84 87 87 87 86
44 46 47 46 45 47 50 51 53 51 49 49 50 49 48 45 40 39 51 55 60 65 64 59 61 64 65 64 64 63 63 67 69 70 72 74 75 78 78 79 78 76 75 75
53 52 51 49 51 49 47 50 52 55 56 55 53 53 48 49 49 56 56 58 58 60 60 62 64 64 64 65 66 67 69 69 72 74 74 75 77 79 76 76 71 71 71 72
45 48 50 48 48 50 50 52 54 56 56 56 58 60 64 66 63 66 56 55 59 64 64 63 63 63 65 67 69 67 68 74 75 76 76 79 79 73 69 70 70 71 72 73
42 42 44 48 50 51 53 53 53 53 52 52 56 62 64 67 64 62 62 60 56 52 55 58 61 64 63 64 67 71 73 74 76 75 78 82 78 77 75 73 72 73 75 76
39 41 42 46 48 49 47 47 48 44 48 48 50 51 56 57 60 61 59 56 52 52 53 53 56 60 64 66 67 65 65 68 71 75 78 77 76 76 76 78 79 79 80 82

GFSNW_250_spd_069.txt.gz
Wind_Speed
68 70 75 79 83 89 91 95 93 96 106 105 94 86 74 72 67 70 67 65 58 56 54 51 49 43 43 38 35 35 34 29 32 31 32 37 27 26 25 18 22 20 25 29
65 66 70 75 82 85 90 91 98 102 111 103 91 85 83 78 71 70 69 66 61 57 57 51 49 46 46 40 37 38 34 32 34 34 32 35 26 26 25 20 19 29 28 33
65 65 67 72 80 83 87 91 100 108 110 93 93 91 85 79 75 72 71 69 64 59 60 57 55 53 51 47 41 38 34 34 34 36 35 36 27 26 25 25 23 22 34 36
64 65 66 69 76 80 87 92 93 99 91 86 89 88 87 86 80 75 72 69 63 62 61 57 57 56 53 50 46 40 37 35 36 36 37 36 28 27 26 26 28 24 28 35
64 65 66 67 73 75 80 83 85 86 84 91 94 92 86 83 81 79 71 66 65 63 60 59 61 59 55 52 49 43 38 37 38 36 37 34 30 31 28 28 30 31 30 30
62 65 65 67 66 64 66 76 81 82 82 91 91 88 85 81 79 79 73 68 69 65 62 64 60 55 52 50 48 46 43 40 38 35 35 32 33 33 32 32 33 31 30 33
61 62 63 60 59 59 66 77 83 84 82 86 87 91 88 85 77 82 76 74 71 65 69 65 58 52 49 48 46 44 41 40 38 35 34 32 38 36 36 34 36 36 34 33
56 57 60 56 56 59 64 73 76 75 80 85 94 93 91 89 85 86 82 82 78 77 70 63 57 52 50 48 45 42 41 39 36 34 33 33 37 42 38 38 41 39 36 35
52 54 55 53 54 60 66 67 71 73 78 80 91 91 95 88 85 89 85 84 84 77 73 64 58 56 48 50 47 43 41 39 36 38 38 34 40 41 42 40 43 45 42 40
48 50 52 53 55 61 62 63 64 69 74 81 83 82 94 93 86 88 87 87 83 79 73 65 60 53 50 49 47 45 44 45 42 42 41 37 40 45 47 42 44 47 48 47
46 48 52 53 55 58 55 57 60 68 75 78 79 84 91 97 88 88 88 91 86 79 72 65 60 56 55 54 51 50 50 51 49 49 44 39 46 46 46 48 48 50 49 50
45 48 50 50 54 54 53 54 60 67 71 77 81 84 89 92 95 96 92 88 86 80 78 69 64 60 62 59 55 56 54 54 55 54 49 49 49 49 49 51 52 52 51 53
43 45 46 50 50 48 48 54 58 62 73 79 79 79 89 99 99 97 95 90 87 80 77 76 73 67 66 64 62 64 61 59 59 57 56 56 53 51 54 55 53 52 53 56
40 42 44 46 46 46 49 53 57 64 72 75 78 86 89 96 101 98 95 90 87 83 79 76 72 69 69 67 65 63 63 63 62 60 58 61 58 58 58 55 55 55 55 56
37 39 42 43 42 44 46 51 57 64 71 76 77 79 87 94 100 98 96 92 85 83 77 71 66 65 65 66 65 62 61 61 60 57 62 60 55 61 58 59 58 57 57 56
37 39 39 40 42 44 47 52 56 63 71 73 79 81 86 91 101 102 99 94 86 81 76 73 70 69 69 67 64 61 60 60 59 57 56 58 59 60 62 62 61 61 61 61
35 36 39 41 42 45 50 58 64 66 68 70 71 75 84 89 101 103 97 90 83 78 73 68 66 65 62 58 54 55 57 58 57 55 56 61 64 63 62 61 62 65 64 60
37 39 40 42 46 47 51 55 59 64 71 76 82 87 89 85 89 90 91 87 84 79 74 69 66 65 60 54 55 57 59 60 59 57 61 63 62 62 63 65 66 66 64 64
36 37 40 44 45 47 51 54 57 64 69 75 77 77 79 77 81 80 80 81 78 74 71 69 66 62 58 57 61 63 63 59 61 64 62 64 64 65 65 66 65 66 67 68
36 38 41 42 45 49 52 58 62 68 70 70 71 72 80 86 85 82 77 74 70 67 65 64 59 56 60 62 64 63 62 59 62 62 63 66 66 63 62 62 66 65 68 73
34 36 38 39 43 43 40 42 43 56 66 68 68 71 75 82 78 69 68 68 67 64 61 60 56 56 62 65 63 63 62 61 65 67 66 64 64 65 66 68 69 71 76 79
32 34 38 39 39 45 49 50 48 50 57 60 63 65 71 75 70 67 69 69 60 56 58 55 54 59 64 64 63 65 63 62 63 66 66 67 67 68 69 72 73 76 80 82
34 32 34 38 44 49 53 52 52 51 52 54 57 62 64 65 64 64 64 64 62 57 59 58 60 63 64 63 63 65 65 67 67 68 69 69 70 71 73 74 76 79 81 83
44 43 42 43 44 46 48 45 46 48 50 50 51 53 55 56 58 59 60 59 60 61 58 58 59 59 59 60 62 65 66 69 70 71 72 73 74 74 76 79 81 81 83 88
43 51 52 51 50 49 49 50 50 51 51 49 48 50 51 50 50 51 53 55 56 56 57 55 56 57 59 61 62 65 66 67 69 70 72 74 75 78 80 82 82 84 88 90
46 46 47 47 46 46 44 43 43 44 45 47 47 46 46 48 49 51 48 50 52 49 50 52 54 55 57 60 64 68 70 71 72 74 76 78 79 81 81 81 83 86 89 88
44 43 43 44 42 43 43 42 44 47 48 48 48 50 52 51 48 46 49 49 51 55 57 57 57 59 63 64 65 66 67 70 71 73 74 76 79 82 83 84 86 84 83 84

GFSNW_250_spd_072.txt.gz
Wind_Speed
67 66 67 68 70 75 75 76 75 87 99 98 82 66 68 79 81 78 75 70 69 66 63 58 54 50 49 48 42 35 33 29 28 28 27 23 22 23 28 23 19 19 24 30
65 65 65 65 67 68 71 72 77 90 99 87 75 67 74 84 86 80 78 71 70 69 65 60 56 55 53 48 44 41 37 32 30 29 28 25 24 24 25 24 19 19 18 23
65 64 63 64 64 66 67 71 79 88 85 75 72 77 79 87 85 87 80 76 72 68 66 65 60 57 55 50 46 45 39 36 32 31 28 26 26 26 25 24 23 20 19 22
64 65 64 63 64 64 64 66 71 78 78 73 70 72 78 89 89 88 83 79 72 67 66 66 65 60 56 52 49 45 40 38 35 34 31 30 28 29 26 25 24 23 24 23
67 65 65 63 63 63 58 59 68 74 74 75 73 79 80 86 87 87 84 78 75 71 68 68 67 64 58 53 52 47 42 41 37 36 34 36 29 31 28 26 26 26 27 27
62 65 66 64 60 55 49 60 68 72 72 74 78 76 79 83 87 85 85 81 80 74 71 68 67 65 59 53 51 48 45 42 39 39 40 38 31 33 30 27 28 28 29 30
58 60 63 60 52 48 57 66 69 69 74 76 74 80 86 87 89 86 84 82 78 75 77 71 68 63 58 55 52 49 45 43 40 41 40 33 37 33 31 29 31 30 31 32
53 55 57 53 48 50 58 65 63 63 72 77 80 83 89 93 96 92 88 84 86 85 82 76 71 64 60 57 53 51 49 44 41 41 38 34 37 38 31 31 37 35 33 35
48 50 50 49 49 52 60 63 64 64 73 75 82 85 90 93 95 96 91 91 92 90 83 75 68 63 59 60 54 51 48 45 42 40 36 32 46 39 35 33 40 36 38 38
44 45 45 47 51 55 59 61 57 63 72 75 74 77 88 97 98 97 96 92 92 91 84 75 69 63 60 57 54 51 48 43 39 40 36 36 45 42 40 36 45 39 41 44
40 41 43 49 51 55 55 53 58 63 68 71 75 81 85 94 100 102 96 100 95 90 86 77 68 64 62 58 55 53 50 46 42 40 38 37 50 47 42 43 43 45 48 48
38 41 45 46 50 51 51 52 58 61 64 70 74 78 84 91 97 107 100 90 93 86 82 78 70 67 66 61 58 56 50 47 47 44 42 45 48 49 47 47 48 48 49 51
39 42 44 47 47 46 47 52 58 61 65 71 76 82 89 95 97 99 97 97 92 86 83 79 81 73 69 63 59 60 54 53 48 48 47 50 52 54 53 52 53 52 54 57
39 40 43 43 42 43 47 52 55 57 62 70 77 77 84 93 97 95 94 97 94 89 87 79 76 71 67 63 61 58 55 53 52 50 53 57 57 58 56 56 56 54 56 59
37 39 39 39 40 43 49 51 51 55 62 69 73 77 85 86 90 94 96 94 91 87 83 76 70 69 66 66 63 56 55 57 57 56 60 61 59 58 57 58 57 55 57 60
33 34 36 38 40 44 45 47 51 57 63 67 70 76 76 80 82 94 99 94 88 84 79 75 72 67 67 65 59 61 61 60 60 59 61 62 62 61 60 59 59 57 58 60
32 34 37 42 44 45 47 55 59 62 63 67 73 75 75 76 81 87 99 99 90 85 80 74 72 69 67 65 63 66 65 64 63 63 63 62 62 62 62 60 58 58 60 62
35 37 38 39 40 42 45 45 49 52 56 61 63 61 64 74 80 85 92 98 90 82 77 72 71 71 69 66 64 64 65 66 66 64 65 65 64 63 62 61 60 62 63 66
30 31 33 34 36 36 38 43 47 50 52 56 61 67 77 84 85 84 89 94 83 82 78 76 75 71 65 64 65 67 68 67 66 65 63 62 62 62 63 62 62 64 66 67
29 30 31 33 35 39 40 41 44 47 49 53 61 71 75 72 81 85 90 87 81 81 80 81 75 71 70 67 66 68 67 66 65 64 64 64 65 65 66 66 66 67 68 68
28 28 29 31 34 36 39 42 45 51 55 62 68 72 68 71 77 81 81 78 77 79 82 81 78 76 73 71 71 71 67 66 65 66 65 66 68 68 69 70 68 67 68 69
25 26 27 29 31 35 38 40 42 48 54 55 63 63 65 72 79 78 78 78 80 82 82 84 80 76 75 76 74 70 68 68 67 67 68 67 67 67 68 69 70 71 72 74
26 27 28 29 31 32 32 38 41 41 49 60 64 65 70 77 80 81 80 79 78 77 81 79 78 78 76 74 71 70 69 67 67 67 67 68 70 71 73 74 74 75 76 77
35 36 38 39 40 36 34 38 42 50 54 59 66 68 73 77 77 75 76 76 74 72 73 70 70 68 67 67 66 65 64 64 64 64 66 68 71 73 74 76 76 78 80 83
38 38 39 43 44 45 40 36 43 50 57 61 61 64 67 70 73 72 70 68 65 62 62 56 56 58 60 62 63 62 62 63 64 66 67 69 71 73 74 76 78 81 84 86
35 33 32 30 37 44 44 43 42 42 48 53 55 55 59 62 62 61 60 60 62 59 56 58 61 62 62 63 64 64 64 65 66 66 68 69 71 74 77 79 82 84 86 87
38 42 41 43 42 41 40 40 41 42 43 45 46 49 52 51 57 59 57 60 62 62 62 63 63 64 64 65 65 66 66 67 66 67 68 71 74 76 77 78 78 79 81 83

GFSNW_250_spd_075.txt.gz
Wind_Speed
77 77 76 76 77 79 76 73 69 80 86 86 87 80 64 69 77 78 71 69 76 74 74 73 62 54 54 57 53 48 45 41 33 34 31 29 26 24 24 24 23 20 21 23
70 70 69 68 70 71 70 65 68 77 81 73 76 68 65 70 76 76 73 74 81 78 78 77 65 62 65 67 56 50 46 39 38 35 32 32 27 25 24 24 24 22 21 21
62 62 63 63 64 66 67 63 64 66 64 68 71 62 65 71 73 77 76 80 86 81 81 80 72 64 61 69 59 55 48 44 41 40 36 31 28 28 26 25 25 23 20 20
62 62 62 64 63 63 62 56 58 62 55 64 62 63 64 69 76 77 79 86 86 83 83 86 81 74 65 66 65 59 53 47 44 44 40 34 31 30 30 28 27 27 23 21
62 63 64 64 65 64 61 46 53 57 56 63 58 63 66 76 80 81 80 86 87 87 85 87 85 79 76 74 69 64 58 51 47 46 43 38 34 33 34 32 30 29 29 25
63 65 65 66 66 65 46 44 49 52 55 59 54 63 67 68 81 82 89 92 93 91 86 88 87 85 82 75 69 66 61 54 49 45 46 41 33 38 36 34 34 31 32 29
62 61 64 64 63 56 55 49 57 54 59 57 59 66 70 76 79 84 92 97 94 91 95 91 90 83 81 78 71 66 61 56 53 48 45 38 39 41 39 38 36 33 34 31
57 56 57 58 58 56 52 51 52 52 59 58 61 68 73 83 91 96 96 95 93 101 93 90 88 87 85 79 75 68 62 59 54 47 44 43 43 44 44 40 38 40 33 34
51 51 52 56 54 51 49 51 56 57 62 61 61 68 72 85 87 92 96 101 101 101 94 91 87 83 81 79 73 68 63 59 54 50 45 43 45 50 48 43 41 40 34 37
44 45 47 50 48 46 49 54 58 59 59 60 59 67 73 82 89 91 99 102 101 97 96 90 84 82 80 74 70 68 66 60 55 50 48 47 48 53 52 44 51 36 38 36
40 41 44 45 44 43 48 53 55 56 56 56 61 72 79 83 86 93 98 104 105 102 103 94 83 79 78 77 70 67 65 61 55 51 48 45 51 56 52 52 46 42 41 40
37 38 41 42 42 46 54 55 53 53 56 56 64 73 81 85 89 96 102 95 97 95 96 95 88 77 76 74 72 68 64 57 56 54 50 50 49 53 53 53 48 44 43 45
35 37 39 42 45 49 52 49 50 50 52 59 68 75 83 87 88 91 90 101 98 100 96 96 95 82 74 71 69 69 63 60 54 56 51 50 52 53 52 53 47 45 49 50
35 38 41 44 47 48 48 49 47 51 59 64 68 70 78 82 83 84 90 97 104 103 100 94 90 87 76 70 69 67 63 59 56 55 54 55 50 56 56 53 51 52 54 53
36 39 42 44 44 46 46 49 52 56 56 58 61 67 74 80 81 87 92 93 96 94 91 90 85 86 83 75 66 59 60 59 57 58 60 57 57 58 56 58 57 56 57 57
34 37 39 39 41 45 48 49 48 45 53 56 60 66 69 73 75 83 85 84 87 92 90 86 87 86 82 77 69 65 64 62 62 61 61 62 62 62 62 62 60 57 60 61
33 34 38 43 48 47 42 43 46 49 53 55 58 62 66 69 71 71 79 83 88 92 91 86 84 82 78 74 69 72 69 65 64 65 66 65 64 63 64 63 62 61 61 63
36 39 41 40 38 41 42 41 43 46 49 50 51 57 62 63 65 69 77 83 86 89 87 85 82 78 74 68 68 72 71 71 68 67 66 65 66 65 65 65 65 63 64 67
29 29 30 32 34 33 33 35 38 41 45 46 50 54 60 62 64 72 82 86 88 82 79 81 80 76 69 66 70 69 68 70 70 69 71 68 67 68 68 68 67 65 68 67
29 29 29 30 29 30 33 35 37 40 44 45 47 53 59 61 64 72 80 83 86 81 77 78 74 72 71 70 69 69 70 70 70 70 69 69 68 69 68 68 66 68 68 69
28 28 29 30 31 32 32 34 38 42 41 46 51 53 57 64 69 75 80 85 85 76 78 77 74 71 71 66 69 72 73 70 69 69 69 68 68 69 67 66 70 70 71 74
25 25 26 27 29 30 31 34 40 42 47 49 50 52 58 61 62 67 70 74 81 71 77 75 72 70 68 69 70 74 73 71 69 69 69 69 69 69 70 72 73 74 76 78
30 30 30 31 31 33 36 38 39 43 45 46 49 53 60 62 63 63 66 68 78 73 74 73 74 75 74 75 77 73 71 71 72 72 72 72 73 73 74 75 77 78 79 79
32 34 35 34 37 42 42 40 41 42 43 43 46 51 53 53 54 56 61 64 67 67 66 64 70 75 80 80 78 76 74 74 75 76 76 76 77 78 78 79 80 79 79 79
33 32 33 33 33 34 32 34 36 39 40 39 43 45 48 52 53 53 55 56 61 63 67 68 70 73 75 76 77 78 78 78 79 79 79 79 80 82 80 78 78 79 80 81
32 32 33 36 33 31 33 35 34 34 40 43 45 49 51 52 52 52 53 56 62 63 64 64 65 67 70 72 75 77 78 79 79 80 79 79 78 76 76 77 78 80 82 84
30 35 37 37 36 35 36 38 40 41 43 48 48 47 48 49 50 53 56 58 60 65 66 66 65 67 69 70 71 72 73 75 75 73 73 73 74 76 77 80 82 83 83 85

GFSNW_250_spd_078.txt.gz
Wind_Speed
72 73 74 75 76 78 79 79 74 79 85 81 76 77 83 77 78 78 90 86 81 84 81 76 68 59 68 72 59 52 52 54 50 44 43 41 33 34 31 29 22 20 19 16
70 70 70 71 72 74 75 70 70 76 75 66 65 70 75 69 74 73 83 77 78 80 78 72 62 63 75 70 59 53 56 57 54 48 41 36 39 37 33 30 26 22 21 20
66 66 66 67 68 70 72 68 66 68 63 61 65 65 67 61 67 72 76 73 77 78 72 69 61 65 78 74 62 57 60 60 53 45 42 45 38 34 33 30 29 24 24 24
61 62 63 64 65 67 70 62 55 60 53 56 60 61 54 56 62 68 71 73 71 69 73 71 64 70 83 78 66 59 63 57 57 50 46 42 41 39 36 33 33 28 25 27
63 63 61 63 64 66 70 57 50 52 51 57 58 53 45 56 66 69 65 67 72 74 75 67 67 78 84 84 72 62 58 63 59 52 49 46 44 40 38 36 34 33 29 30
60 60 61 61 62 66 64 53 52 47 47 52 53 48 48 55 59 64 67 70 80 76 74 78 75 82 90 84 74 64 59 56 59 55 52 49 41 38 41 40 38 36 34 33
59 59 60 62 63 66 63 57 56 44 46 50 50 51 50 54 64 68 70 76 77 76 83 78 79 87 94 85 78 69 61 60 64 64 61 48 45 44 44 42 40 38 37 37
58 58 60 63 65 66 68 60 49 41 44 54 53 51 50 57 65 68 71 73 72 86 89 82 90 92 96 88 83 75 67 57 57 64 63 57 50 48 47 47 43 42 42 42
56 58 60 63 64 64 63 54 54 48 49 51 55 54 55 59 65 69 68 74 83 85 88 83 93 98 93 90 85 78 72 64 60 68 65 57 52 52 50 49 40 49 45 43
49 53 55 57 59 58 53 48 49 52 49 63 57 50 52 60 64 68 71 80 84 83 84 85 95 90 90 90 89 83 79 73 71 71 66 60 55 56 54 46 48 51 47 47
45 48 49 48 48 48 43 44 48 50 53 60 52 45 55 60 67 72 77 83 84 90 84 81 92 94 88 86 90 88 82 79 74 74 70 60 59 59 56 54 55 51 49 50
40 41 41 41 41 42 41 43 48 52 60 61 49 51 55 64 72 75 73 71 82 81 77 78 91 92 89 83 85 89 87 78 72 71 68 65 64 60 59 58 55 56 53 52
34 35 35 37 39 39 43 50 53 57 59 52 50 52 62 68 69 71 72 77 79 81 79 83 95 99 90 86 79 83 86 84 78 72 68 64 62 62 61 59 59 57 54 53
30 31 34 37 41 45 47 49 55 54 48 52 53 53 58 64 69 72 73 78 82 81 83 82 90 96 89 84 81 80 78 80 77 72 70 67 65 65 61 58 55 56 56 55
28 31 35 41 45 49 53 55 52 52 54 52 47 51 61 64 66 71 73 79 81 83 82 81 84 94 90 87 83 78 77 75 72 69 70 68 66 65 62 59 58 57 56 57
28 33 38 42 47 50 51 51 52 50 47 47 48 54 55 58 65 71 75 77 81 82 82 80 85 97 92 86 78 73 72 71 73 71 70 67 65 65 59 58 59 59 60 59
29 34 38 43 44 44 43 41 38 38 40 41 42 49 53 57 60 69 74 75 82 80 71 77 85 92 95 83 73 71 72 72 70 66 65 68 68 62 62 61 62 63 63 62
26 30 32 33 33 35 37 40 43 43 40 40 44 48 49 51 56 63 68 71 69 65 69 79 82 87 90 86 77 74 72 69 67 67 67 63 63 64 63 62 62 63 65 66
24 26 28 30 33 35 35 36 35 35 36 39 41 42 44 46 50 58 62 65 66 68 69 77 80 82 77 82 87 84 78 71 68 66 64 65 63 62 63 64 64 65 67 70
25 26 28 30 31 32 34 35 34 35 36 36 37 37 40 43 48 55 61 64 66 66 70 75 76 78 77 77 82 87 83 77 75 73 70 70 69 67 66 67 68 69 72 74
29 28 28 28 29 30 31 33 34 32 33 34 35 35 37 39 45 53 57 58 62 62 64 64 69 74 75 73 76 81 80 80 80 76 75 73 71 70 70 73 73 74 76 77
31 32 31 30 29 30 30 31 31 30 31 31 32 33 35 40 47 53 51 54 53 58 64 63 65 68 69 71 74 74 75 77 77 74 72 69 69 68 67 69 72 74 76 76
29 29 30 31 31 30 30 31 31 30 29 29 31 32 36 39 45 48 50 52 51 57 58 56 59 67 69 71 73 73 75 75 70 67 66 67 68 68 70 72 73 74 76 80
32 33 33 33 32 32 31 32 32 29 28 30 32 34 36 41 44 46 48 50 53 55 52 54 62 66 68 70 73 75 76 71 69 68 68 69 70 72 74 76 78 79 81 85
30 29 31 32 31 31 31 32 32 31 34 36 35 35 38 41 43 45 48 48 49 49 48 56 62 65 64 67 71 72 70 69 69 68 69 70 72 74 75 77 79 81 83 86
25 26 27 26 29 29 29 29 30 30 31 30 31 32 34 37 40 40 41 38 43 48 50 56 60 62 62 64 67 69 71 71 71 72 73 75 76 79 81 83 85 86 89 91
28 27 26 25 27 27 26 28 30 28 27 31 31 31 31 32 35 35 34 37 38 44 50 54 61 65 68 68 69 70 73 74 75 76 78 80 81 83 85 86 87 88 89 90

GFSNW_250_spd_084.txt.gz
Wind_Speed
61 61 62 63 66 69 69 69 66 74 80 73 70 67 77 84 87 86 84 82 83 99 100 92 90 90 91 102 97 97 89 86 81 74 71 65 63 52 52 47 40 31 27 27
58 58 57 57 59 60 62 60 62 67 69 62 67 73 74 77 73 75 71 72 78 82 87 81 73 73 75 76 79 83 90 83 78 75 70 63 59 52 54 52 49 31 29 32
54 55 55 56 56 56 55 54 53 57 58 58 60 66 69 72 72 70 66 69 72 70 78 73 62 65 70 73 72 71 73 71 66 65 63 63 57 53 59 56 48 35 33 37
49 49 51 54 56 55 50 47 48 52 52 55 57 59 64 63 62 59 55 64 66 67 71 72 62 62 64 68 69 68 65 58 57 57 59 59 59 55 63 58 47 37 42 35
45 46 47 49 53 53 44 43 46 52 53 51 51 52 55 56 57 53 52 59 60 62 67 65 66 62 65 64 62 62 63 57 58 53 58 60 55 57 63 59 49 38 45 37
41 42 43 45 49 49 38 40 44 46 46 46 45 46 53 53 52 45 53 55 58 59 59 58 60 59 62 65 59 66 64 59 61 59 59 63 61 60 62 58 49 40 44 41
37 38 39 41 45 45 40 37 43 40 40 40 44 49 49 49 49 49 52 52 55 59 55 55 56 57 59 63 68 70 57 57 60 64 64 66 53 65 65 58 53 46 46 42
39 40 41 42 44 45 40 39 37 32 35 38 39 41 42 44 44 44 45 49 55 56 50 50 52 54 57 62 67 67 61 61 60 65 65 61 64 69 67 60 53 45 42 41
42 42 44 45 47 48 45 42 36 35 36 30 45 44 45 45 46 45 46 50 50 45 41 45 50 53 54 61 65 67 65 60 62 66 65 59 66 67 66 62 54 48 45 40
46 48 50 52 53 53 51 45 43 40 38 43 41 41 45 49 51 49 47 41 40 36 39 43 51 54 58 66 68 70 65 54 62 66 66 62 70 70 71 64 53 53 47 45
52 54 56 57 58 57 53 52 51 49 46 48 45 45 45 48 49 52 53 43 34 34 40 46 52 58 59 67 70 72 63 62 65 71 68 64 71 73 71 64 59 58 50 47
54 56 57 59 59 58 56 55 53 51 46 45 48 47 51 53 52 53 47 42 37 37 38 46 53 61 64 65 69 57 51 64 71 73 67 74 74 72 70 68 64 60 55 51
47 49 51 53 55 57 55 57 56 51 45 45 45 44 54 60 54 52 45 43 40 41 41 48 55 63 64 61 61 49 56 62 68 69 70 75 72 71 68 67 69 66 63 54
40 42 45 47 48 48 49 50 52 46 44 40 47 57 59 60 56 52 47 45 39 42 41 49 54 60 60 58 57 53 62 65 67 73 77 74 70 68 67 70 71 67 67 63
31 34 38 40 44 47 46 47 45 43 38 43 51 63 62 55 52 53 48 43 41 42 42 48 53 57 58 56 55 59 62 64 70 76 83 75 71 64 67 68 68 69 67 63
27 30 32 35 38 40 42 40 36 35 41 49 56 53 47 49 54 51 44 37 40 40 42 48 53 56 55 55 46 60 65 69 73 77 82 81 76 68 65 66 65 63 65 65
22 26 28 30 29 29 34 40 41 40 45 46 48 48 47 49 46 38 39 39 40 43 43 47 52 54 55 55 55 62 65 70 72 76 80 80 78 72 69 68 68 70 71 69
16 20 22 26 29 31 33 34 37 42 42 42 41 39 40 38 32 40 42 39 41 41 43 46 51 53 50 52 62 68 70 71 71 78 82 80 81 77 71 68 68 69 70 69
16 17 18 21 24 26 27 31 35 37 37 36 36 36 34 33 42 43 39 39 38 39 41 43 50 49 43 58 66 69 72 71 73 77 81 79 82 81 79 76 71 68 68 69
21 20 20 22 24 27 29 29 28 28 30 33 34 36 37 38 35 36 37 35 35 37 41 44 49 47 54 62 64 65 70 72 72 74 73 72 73 76 78 80 79 76 72 72
29 28 25 25 26 28 30 32 33 34 33 33 32 32 30 31 32 33 33 35 34 38 41 46 48 50 50 56 63 67 69 73 73 74 72 74 74 77 80 76 74 75 76 75
36 38 34 33 32 33 34 33 32 32 31 31 30 29 30 31 33 32 32 32 33 36 38 42 42 45 51 57 60 62 67 70 74 71 70 71 72 72 71 70 72 73 73 72
29 35 34 31 33 32 30 31 32 32 31 28 26 26 27 27 26 26 26 25 29 33 31 37 40 38 43 49 50 56 57 62 71 72 69 67 65 63 64 64 65 66 67 68
30 33 34 32 32 31 31 29 28 27 26 25 24 23 22 22 23 24 25 27 30 29 30 37 41 40 45 51 56 57 56 60 70 76 70 67 68 66 64 63 63 64 65 67
26 26 29 29 28 28 27 26 25 24 23 22 22 21 22 23 23 25 28 28 29 32 37 40 41 43 44 49 51 51 57 60 64 69 71 67 66 68 70 70 70 70 72 73
23 25 25 25 24 24 23 22 22 22 21 21 20 20 20 21 22 23 26 28 31 36 42 44 44 45 45 47 48 51 54 56 57 58 61 65 68 69 71 72 74 76 77 79
23 23 22 24 25 25 24 24 24 22 20 20 20 19 16 18 21 23 26 30 32 33 38 41 42 41 43 43 44 44 45 46 48 49 52 56 60 62 65 68 71 74 76 79

GFSNW_250_spd_087.txt.gz
Wind_Speed
67 64 62 61 62 62 61 59 55 65 66 59 55 55 62 70 78 83 82 81 86 93 94 97 97 89 97 102 99 99 98 90 86 86 84 80 78 76 72 61 54 47 43 42
61 59 56 55 55 56 55 53 52 59 58 50 51 58 62 68 71 72 71 77 81 81 84 82 79 90 96 95 97 97 98 95 88 86 87 82 82 70 69 64 52 43 43 47
56 54 51 49 50 50 48 47 47 52 49 50 53 58 61 62 68 68 63 65 72 73 79 81 78 77 84 87 89 90 96 91 83 86 89 87 80 76 74 72 59 50 41 54
51 49 47 46 44 42 42 42 46 48 47 52 53 52 56 58 59 61 60 63 66 65 68 70 71 74 74 73 70 72 78 69 73 72 77 80 81 77 75 70 61 54 47 57
47 45 45 43 38 35 38 42 44 47 49 46 44 44 50 53 54 55 53 59 61 60 63 68 65 60 59 60 62 65 67 61 66 65 66 67 71 68 65 63 57 52 51 56
45 43 42 39 33 33 35 38 40 43 42 40 39 46 48 50 49 51 52 56 54 57 59 61 55 53 55 55 59 64 58 59 60 60 66 67 66 48 55 58 56 51 55 59
42 42 42 39 32 33 32 36 38 37 40 39 45 47 48 49 49 48 48 50 53 54 53 54 51 49 51 53 59 61 62 62 58 60 69 69 45 53 53 55 55 53 60 64
41 40 40 38 36 33 35 37 33 36 37 39 40 40 44 45 45 46 47 52 55 49 49 48 47 47 45 52 56 63 65 63 52 60 65 57 53 50 53 54 51 56 62 63
39 39 40 39 37 34 37 36 34 34 36 31 38 38 40 41 42 43 47 50 44 43 42 42 43 45 48 53 59 65 64 67 58 61 63 59 58 57 64 60 56 57 64 67
40 40 40 39 38 35 35 35 37 36 33 36 36 36 38 41 40 41 42 42 41 39 37 39 43 47 49 52 58 61 68 64 61 63 63 57 64 65 63 58 56 60 67 68
38 39 40 40 40 39 36 36 34 37 42 46 42 40 40 40 40 40 45 40 35 32 32 37 41 45 46 51 57 62 63 66 66 63 60 57 66 68 65 58 65 63 66 68
41 42 43 44 45 46 44 41 39 40 42 44 45 46 45 45 48 46 40 38 33 31 32 34 40 46 48 54 56 63 63 67 71 64 61 59 64 66 66 60 62 66 70 69
46 47 48 49 50 50 46 45 46 43 41 47 44 44 51 53 52 50 46 42 40 34 35 37 38 45 51 55 58 64 66 70 68 55 59 59 64 68 67 64 64 70 72 72
46 48 50 50 50 51 50 47 47 42 38 38 50 57 54 59 58 52 48 46 41 37 39 37 39 45 50 54 60 66 67 67 60 57 53 64 65 68 67 65 67 71 69 69
40 42 43 45 45 46 46 46 47 43 40 46 54 56 59 59 56 51 49 47 42 37 36 36 38 45 50 53 59 60 64 63 41 50 58 63 66 70 68 65 69 71 71 73
34 37 39 40 41 41 38 33 37 40 44 45 41 45 55 56 52 49 51 50 46 39 36 38 40 47 46 49 54 58 56 48 38 52 60 62 67 71 68 67 68 70 71 72
28 30 32 35 36 34 36 43 48 45 43 37 38 45 49 55 55 52 52 50 43 36 37 38 41 45 44 45 47 56 49 40 46 62 68 68 70 70 69 70 70 66 66 68
23 25 29 31 32 34 36 39 40 38 40 39 42 45 48 48 44 44 46 43 31 29 36 39 41 44 43 45 51 50 44 46 55 56 62 69 72 72 69 73 72 69 66 67
19 21 23 27 30 31 32 31 34 34 33 33 32 34 37 37 38 41 35 29 30 39 41 38 41 42 41 45 47 48 47 54 61 66 64 69 73 74 76 77 76 73 66 61
21 21 21 21 23 24 27 26 25 26 26 28 31 32 33 37 37 30 30 36 42 44 41 39 37 36 38 41 49 49 55 62 64 64 67 69 73 77 76 78 77 74 69 64
25 26 26 26 27 28 26 26 26 26 26 27 29 32 31 31 31 37 40 40 38 38 39 33 29 35 38 43 49 52 55 66 67 68 70 72 74 78 78 77 76 76 73 70
24 27 28 29 29 30 32 33 32 33 34 33 30 33 37 39 36 35 33 33 37 39 37 28 27 40 40 46 53 58 61 66 66 67 70 71 73 75 78 79 77 78 77 73
28 29 27 28 29 30 31 32 32 30 31 32 34 35 34 35 35 35 35 36 38 37 28 26 35 42 42 50 54 57 61 63 64 65 68 69 70 72 75 79 76 74 72 73
28 30 30 27 26 27 29 32 33 33 33 33 33 33 33 30 30 28 27 25 25 23 25 32 39 40 44 51 52 53 53 52 54 60 66 70 70 69 71 75 78 76 74 73
27 29 29 29 28 28 28 29 29 28 28 27 25 24 23 23 23 24 26 26 26 27 29 32 37 39 43 46 47 48 48 51 54 60 67 68 67 70 68 69 70 72 73 73
25 25 26 26 27 27 27 27 26 24 22 20 19 18 18 18 18 19 19 18 19 25 29 33 36 38 41 44 46 48 50 52 52 62 69 65 60 62 63 64 66 67 67 67
23 25 24 25 26 26 26 25 25 24 24 23 21 19 16 13 12 13 16 19 21 23 26 31 37 41 43 44 46 45 47 50 53 55 57 58 56 56 60 65 67 67 69 69

GFSNW_250_spd_093.txt.gz
Wind_Speed
94 89 87 84 82 80 69 64 60 65 57 53 51 53 54 53 57 58 61 67 69 70 76 78 82 88 88 87 86 90 82 78 78 73 70 69 69 67 60 56 52 55 56 49
80 76 73 73 74 67 60 56 55 56 54 53 51 52 49 47 54 58 57 62 67 69 75 78 77 81 88 88 86 85 88 87 82 81 79 75 76 75 64 64 66 56 58 54
66 66 65 65 64 56 53 48 48 54 52 53 47 46 44 48 49 49 51 56 63 68 71 76 76 74 79 84 87 87 85 83 88 85 85 81 76 79 78 72 69 67 62 64
59 59 58 57 56 51 45 45 49 52 45 46 43 42 45 46 45 45 43 53 59 63 65 67 69 73 73 74 79 78 80 80 84 85 88 89 85 79 79 75 69 69 69 69
53 52 52 52 49 43 42 49 45 42 43 43 43 43 44 41 41 40 40 49 54 54 60 62 65 67 69 72 70 76 78 76 78 83 88 89 91 89 88 84 80 75 71 68
45 46 45 44 42 39 43 39 40 40 39 38 44 40 38 37 37 39 41 43 45 49 55 56 58 61 65 70 72 74 78 82 83 84 87 90 87 89 90 90 91 86 83 72
42 41 40 38 38 38 38 38 38 39 37 38 35 34 34 36 37 36 36 36 40 44 49 53 55 57 58 61 66 68 73 78 76 77 84 83 75 86 88 84 79 82 80 80
36 37 34 36 37 37 37 38 36 34 31 31 33 33 34 35 35 34 35 37 38 42 45 48 50 53 57 60 60 58 65 66 70 71 75 71 77 82 84 87 84 83 80 76
32 31 32 35 35 34 34 32 31 30 31 30 29 30 31 31 31 33 35 32 35 38 41 42 46 49 53 55 58 57 58 53 51 56 63 67 73 71 77 79 80 74 72 71
28 29 31 33 32 31 30 29 27 30 29 29 30 31 32 32 34 34 33 34 33 34 39 42 43 45 48 50 48 50 50 49 48 51 53 58 65 68 71 68 67 66 63 62
27 27 29 30 29 27 27 25 25 28 28 27 28 29 31 33 35 35 33 34 34 33 34 38 41 42 42 43 41 42 41 44 48 52 54 56 59 58 57 55 62 64 61 56
24 26 27 27 26 26 26 23 25 27 21 25 28 32 33 35 34 32 34 35 33 34 36 38 37 38 39 42 41 40 40 44 48 50 56 59 61 58 55 55 59 57 56 52
25 25 26 27 27 29 29 30 29 26 24 25 25 28 32 31 32 33 32 34 34 35 36 35 35 35 37 37 36 37 38 42 45 48 54 57 59 58 59 58 56 52 53 50
21 22 25 27 28 31 34 34 32 30 29 29 29 30 29 29 31 33 35 36 36 36 36 36 35 36 35 35 35 35 38 41 42 48 53 56 55 54 56 56 54 51 50 50
22 23 24 27 28 31 34 36 37 34 36 31 32 32 31 33 31 30 32 35 39 38 36 35 36 36 36 36 34 39 37 41 44 51 52 54 49 45 46 50 46 46 51 50
26 27 29 29 31 31 30 31 35 40 42 41 40 38 39 37 35 32 31 32 34 36 35 36 35 38 36 34 32 40 37 40 44 51 50 49 46 43 42 41 41 45 47 51
31 32 34 35 36 36 36 36 39 40 43 48 51 50 48 45 40 35 32 27 29 33 37 36 35 36 30 27 31 45 40 38 42 51 49 48 49 48 43 35 43 49 48 49
33 35 37 39 40 39 36 38 41 38 35 37 47 56 58 48 41 40 36 32 27 26 33 37 37 38 30 26 37 50 42 39 40 46 49 49 52 50 47 42 39 48 52 52
29 33 36 36 30 30 32 34 36 32 31 32 38 46 53 49 53 44 37 33 31 31 30 34 36 29 24 39 47 53 44 36 37 43 48 50 54 52 50 44 48 45 49 52
22 25 23 21 23 25 26 26 25 23 25 31 37 40 42 46 49 49 46 38 33 30 34 31 25 29 38 45 52 52 42 32 37 39 43 47 50 49 45 43 44 43 52 51
17 17 21 25 27 26 24 21 22 27 30 33 32 32 34 35 39 40 42 37 37 32 32 30 29 36 45 50 53 52 36 32 36 38 39 44 44 44 42 45 44 48 45 51
21 22 23 23 23 21 23 26 28 28 28 29 30 30 35 38 40 38 37 36 29 24 29 28 34 42 52 55 56 43 29 31 38 37 37 41 42 43 45 45 48 57 54 52
16 19 21 23 26 28 28 27 28 28 28 30 32 33 34 34 30 32 32 30 28 27 30 38 40 56 50 39 32 25 31 35 35 35 37 41 44 46 50 53 54 53 54 54
11 12 16 21 23 22 22 22 23 23 24 25 26 28 29 30 30 31 31 31 32 36 41 43 46 31 18 19 25 31 34 34 34 35 37 39 44 50 52 54 58 54 60 65
18 18 16 18 18 19 19 18 18 19 20 22 23 24 25 26 26 25 26 28 30 34 36 36 32 24 22 27 30 33 34 33 32 37 40 42 46 52 55 57 58 63 66 65
25 24 23 20 20 20 21 21 20 20 20 20 21 21 23 23 22 23 22 22 24 24 25 25 25 27 27 29 33 36 34 31 31 38 42 45 49 54 56 57 57 59 63 65
23 24 22 21 19 17 20 21 19 18 18 19 20 21 21 20 19 20 19 19 20 21 22 25 27 28 29 31 35 38 34 32 33 40 42 46 51 54 59 60 61 62 62 64

GFSNW_250_spd_099.txt.gz
Wind_Speed
101 100 100 101 103 104 102 103 101 102 101 99 97 97 99 95 96 91 87 81 76 71 68 68 64 67 69 64 68 71 69 71 75 78 80 76 70 64 59 63 68 66 66 64
94 93 92 93 94 90 94 92 93 92 90 90 89 90 88 85 84 84 76 68 66 64 65 65 66 67 66 59 66 72 64 71 76 80 85 85 77 73 70 63 55 50 57 57
82 82 81 82 85 79 84 83 82 82 81 82 82 82 79 77 76 69 60 57 60 61 60 61 62 62 61 57 65 65 69 72 77 82 89 90 86 84 74 72 68 67 62 62
69 68 67 67 70 70 68 68 72 70 68 72 71 69 66 65 60 56 50 52 55 55 54 58 57 60 57 55 59 65 67 71 77 84 88 92 90 85 84 85 80 77 72 72
60 58 58 57 59 58 56 60 63 62 61 64 63 58 54 52 54 49 45 49 54 55 53 52 52 51 51 50 54 60 64 70 75 82 87 89 93 92 89 78 78 70 77 77
51 50 49 49 50 50 53 54 55 56 54 53 48 46 47 47 45 42 45 50 46 46 45 45 46 43 46 46 49 56 59 68 72 77 87 90 85 89 88 84 85 76 75 70
43 42 41 42 42 45 46 46 44 43 43 41 41 43 41 40 42 40 39 40 39 37 39 40 41 44 43 44 49 51 58 64 70 73 81 84 85 89 89 84 76 84 81 76
36 35 36 37 38 39 39 37 38 34 33 37 38 35 36 37 36 35 35 34 33 35 36 38 40 41 41 43 44 48 54 58 65 71 75 80 83 85 90 88 83 80 72 65
30 30 31 32 34 33 32 31 31 32 31 30 33 33 32 29 29 27 29 33 34 35 35 35 38 39 37 38 42 46 49 54 58 67 73 76 82 79 83 85 88 88 83 75
26 26 27 27 26 26 27 29 28 27 27 28 28 26 26 27 27 28 30 30 31 32 32 32 34 35 33 34 39 39 43 49 55 63 67 70 73 75 78 81 84 84 85 86
22 22 22 22 23 24 24 23 23 23 25 26 26 26 24 25 26 26 25 28 29 30 32 33 32 31 32 33 36 38 41 46 53 55 56 64 65 67 72 77 79 79 77 79
19 20 19 20 20 20 21 21 22 23 23 23 22 23 23 24 26 26 28 29 29 30 30 30 29 30 31 32 35 36 40 45 47 50 52 52 56 62 62 66 70 75 76 75
17 17 17 17 18 19 17 18 19 19 19 21 21 20 23 25 26 27 28 29 29 29 29 28 28 28 30 31 33 36 39 42 43 47 48 47 47 52 59 67 66 64 65 66
18 18 17 18 19 17 18 20 19 19 20 21 22 24 25 26 27 27 28 28 27 26 26 26 26 27 29 31 34 36 37 38 42 43 45 43 45 50 53 60 60 61 63 62
19 19 20 20 19 18 19 19 19 19 21 22 24 27 26 27 27 27 27 27 27 25 26 27 26 27 29 32 34 35 34 37 37 39 41 42 44 48 52 49 47 50 53 55
22 21 21 21 20 20 19 17 18 20 21 23 24 26 27 27 27 28 27 26 26 27 27 27 29 29 29 32 34 36 36 37 36 39 41 40 41 43 45 45 47 49 48 49
23 24 24 23 23 22 24 29 29 28 28 28 26 24 24 26 27 27 26 26 27 29 30 31 32 31 32 35 35 36 38 39 38 40 39 39 39 40 41 41 44 44 45 48
24 25 26 25 26 26 26 27 26 27 27 24 25 27 26 24 22 22 23 25 27 29 31 32 33 32 33 34 37 39 40 39 40 40 42 39 39 39 38 38 40 42 44 43
28 29 29 26 25 27 29 27 25 22 20 20 23 26 25 26 28 28 27 26 26 29 30 33 32 30 31 38 41 40 39 40 40 39 43 39 39 38 38 39 40 40 42 44
34 31 24 23 26 27 26 25 22 19 17 19 23 22 22 22 23 28 29 30 31 33 34 31 30 31 40 42 44 39 37 40 40 39 40 38 37 37 36 38 41 43 42 44
31 27 26 32 31 31 30 25 22 19 22 28 28 26 22 22 24 24 25 28 32 35 38 38 36 40 37 41 44 43 34 41 38 38 36 35 35 34 34 35 38 42 45 46
27 30 35 37 35 31 29 26 25 29 33 37 33 30 29 34 34 31 31 28 31 36 40 42 48 49 50 48 46 46 37 32 36 38 36 35 36 34 32 30 34 38 42 47
30 32 32 30 27 28 31 33 35 40 41 34 35 37 40 42 43 40 37 31 29 32 33 38 49 54 49 47 43 42 39 31 28 31 33 33 36 36 34 32 34 37 40 41
19 20 21 24 26 28 30 35 30 26 27 30 32 35 37 36 34 31 31 25 23 26 34 40 50 48 51 48 48 44 40 39 34 31 29 29 34 38 37 35 36 35 37 40
23 24 25 28 30 33 27 24 25 27 27 26 25 24 23 24 26 24 23 24 25 25 31 35 43 47 50 49 48 47 45 39 36 29 31 35 34 36 36 36 38 36 37 42
12 14 15 16 16 17 18 17 17 18 19 20 19 19 20 19 19 19 19 18 19 19 19 21 28 36 45 53 51 46 40 35 31 33 30 31 33 34 36 38 36 38 38 40
20 17 17 16 16 17 18 17 17 17 17 18 17 18 17 16 16 17 18 20 21 22 22 24 28 33 37 42 44 44 42 39 32 34 37 36 35 36 39 37 34 36 39 42

GFSNW_250_spd_102.txt.gz
Wind_Speed
98 99 100 100 100 99 100 101 99 101 102 107 106 103 108 108 108 108 102 103 103 103 100 93 89 84 84 78 65 59 63 60 54 54 56 62 59 65 75 72 68 68 70 63
90 91 91 91 91 92 92 90 90 90 93 92 91 93 96 98 98 95 95 93 91 89 84 80 77 74 73 68 58 55 58 55 51 56 58 61 65 69 74 74 75 70 71 63
80 80 80 82 83 82 83 83 81 83 85 82 79 83 86 87 85 84 84 81 78 77 73 70 67 65 66 64 53 50 56 53 49 53 59 63 63 70 75 72 73 74 72 68
73 71 72 71 70 71 70 68 66 70 72 72 71 72 71 72 71 72 70 67 66 64 60 59 59 62 59 54 50 50 51 48 48 52 56 63 63 71 78 74 78 78 66 74
64 62 61 59 59 60 58 58 54 60 63 61 60 59 60 58 58 58 58 56 55 52 51 53 51 50 49 48 47 46 45 47 47 49 55 57 62 71 76 77 80 77 67 59
55 54 54 52 51 50 50 51 49 47 49 49 48 48 48 47 48 49 50 49 48 48 44 44 45 43 42 42 40 41 41 46 47 49 56 57 54 62 74 81 76 71 70 62
50 49 49 47 46 44 44 40 40 41 39 38 39 38 38 41 42 41 41 40 40 36 40 37 39 39 37 36 36 36 39 42 41 45 51 47 56 73 78 85 85 77 75 71
45 44 42 41 39 38 37 36 35 32 33 31 33 34 35 35 34 33 32 34 34 34 35 35 36 33 34 33 33 36 39 41 39 42 44 54 59 64 69 72 85 80 78 80
38 37 36 33 31 29 28 27 27 26 28 29 30 29 26 26 27 28 29 30 31 32 30 30 32 32 30 31 33 34 36 40 38 41 45 55 61 64 59 72 87 87 86 88
32 32 29 26 23 22 21 21 22 23 24 22 22 22 22 24 24 26 27 28 28 28 29 30 28 27 28 31 33 33 34 36 39 42 44 52 57 53 57 67 82 89 89 87
26 25 22 19 18 18 19 19 16 17 19 19 19 20 20 21 23 23 24 25 26 27 27 26 26 27 29 30 27 27 31 34 37 37 40 48 51 52 59 62 71 74 83 89
22 20 17 16 16 16 14 13 16 17 17 17 19 21 22 22 23 24 24 23 21 20 20 22 24 27 29 29 29 30 33 35 35 37 41 46 46 52 54 56 60 65 69 76
20 17 15 14 13 12 12 15 15 16 17 18 19 22 22 22 23 23 22 19 18 20 22 24 24 25 25 26 28 31 34 34 35 36 37 41 42 47 51 56 58 60 64 67
18 16 14 12 12 14 13 13 15 16 17 22 24 22 21 21 20 18 17 18 18 20 23 24 24 25 25 26 26 29 32 33 34 36 38 40 41 41 44 49 56 61 62 60
18 17 15 13 14 13 14 14 15 18 20 19 21 20 21 21 21 20 21 20 21 22 23 23 24 24 25 26 27 29 31 33 33 33 35 35 35 38 41 46 49 50 54 58
20 18 17 15 14 14 14 16 17 19 19 19 20 21 21 22 22 21 21 21 23 23 23 23 24 24 25 26 27 29 30 32 33 33 34 34 35 39 41 43 41 39 44 49
22 20 18 17 17 19 21 19 16 17 18 19 20 20 22 22 23 23 22 22 23 23 23 23 22 23 24 26 29 30 31 32 32 33 34 34 35 38 39 40 39 38 43 44
22 23 22 21 22 21 20 18 19 19 19 19 20 20 22 22 24 24 22 23 24 24 24 23 23 23 25 27 29 31 32 33 34 34 34 34 35 36 37 36 36 39 41 42
22 22 21 18 20 25 23 20 19 18 19 20 20 21 21 21 21 22 23 24 24 24 26 25 23 26 28 34 35 32 30 30 32 33 34 33 33 34 36 36 37 39 39 40
22 14 15 21 25 21 19 18 17 17 20 21 20 18 19 19 20 21 20 20 20 20 23 22 24 30 33 32 33 31 30 30 32 36 36 33 33 32 32 33 36 38 39 41
19 18 21 25 23 21 18 17 20 23 25 26 24 26 26 23 22 20 19 19 19 22 23 22 24 27 30 32 31 30 31 37 37 37 36 34 34 33 32 33 35 38 41 44
27 30 32 27 24 17 14 15 16 20 22 23 22 20 21 25 27 27 27 27 27 30 28 27 29 33 34 32 33 33 32 33 37 35 34 35 35 35 32 35 34 35 42 47
36 36 31 25 20 19 21 21 24 29 27 17 16 19 21 20 20 22 25 28 35 34 35 33 38 43 40 37 35 37 36 33 31 33 33 32 32 31 34 34 31 34 38 43
30 30 26 23 23 25 27 33 32 23 20 21 23 23 23 22 22 20 22 23 29 29 32 37 48 49 44 44 41 36 35 31 27 25 29 32 30 28 31 31 33 36 36 37
25 27 26 29 32 33 34 28 24 24 25 26 26 26 27 26 27 26 25 27 27 25 26 30 37 40 42 45 44 45 45 37 35 31 28 31 32 31 32 32 33 34 35 37
25 26 27 28 29 26 23 22 23 24 25 24 24 25 27 28 28 26 25 25 24 20 21 22 26 31 32 37 43 42 40 36 30 27 23 27 31 31 32 32 31 34 36 37
20 20 18 18 15 16 15 19 18 18 19 19 20 20 21 21 22 22 22 23 23 24 22 23 27 31 33 35 37 38 38 38 32 23 22 21 22 25 27 31 33 35 39 37

GFSNW_250_spd_105.txt.gz
Wind_Speed
90 92 92 93 92 90 90 89 88 95 98 96 96 97 95 97 96 105 105 104 104 112 112 109 106 108 107 102 100 89 82 81 75 77 74 70 64 57 47 44 48 50 53 58
88 88 87 85 84 83 81 79 80 86 87 89 88 88 85 87 93 101 101 102 99 102 102 99 96 95 97 92 87 78 71 68 64 61 64 62 56 53 47 46 53 48 55 65
84 80 76 75 74 73 70 71 72 79 78 80 79 81 75 80 86 89 89 89 88 90 89 86 85 83 86 81 75 70 63 58 56 50 57 52 47 50 48 50 51 58 63 74
73 71 70 69 67 64 62 63 65 70 69 68 67 69 69 71 73 74 77 75 76 76 75 75 73 72 71 70 69 62 56 52 53 46 52 46 45 45 46 45 55 61 70 74
71 68 64 61 59 58 57 56 57 55 56 56 54 55 60 58 57 58 60 61 62 62 63 63 62 62 61 58 57 52 49 47 47 43 49 44 46 41 45 43 57 62 71 76
64 61 58 55 53 49 47 45 46 43 46 45 43 46 46 47 45 42 48 47 50 52 49 51 50 48 46 46 44 41 41 41 40 43 45 43 34 34 44 53 65 70 73 82
57 54 51 47 43 41 41 40 39 38 41 33 34 33 34 36 38 39 42 42 41 40 40 42 39 39 39 38 38 35 37 36 34 42 40 31 44 51 55 63 79 74 73 80
50 47 43 40 38 36 36 35 33 32 31 30 27 27 30 32 33 33 34 34 32 32 33 34 32 32 35 35 34 33 33 30 31 35 34 38 39 45 51 60 70 69 70 71
44 39 37 34 33 32 32 30 28 28 27 26 26 25 25 25 26 27 29 32 31 29 28 27 28 29 27 28 28 29 29 30 31 34 33 39 43 44 49 54 66 61 67 73
37 34 31 28 28 28 27 25 24 23 22 21 21 21 23 24 23 22 24 24 24 24 24 24 25 25 24 26 26 25 25 26 30 29 32 39 37 41 48 60 67 74 77 71
31 29 24 23 23 23 21 20 20 18 17 19 21 21 21 22 23 22 19 19 20 21 22 23 23 23 23 22 21 21 22 26 28 30 36 38 33 39 48 54 57 64 76 76
28 25 19 19 19 16 15 17 16 16 17 18 17 17 19 18 18 20 21 20 16 13 14 17 20 22 23 22 26 29 30 28 28 30 33 35 36 40 46 52 54 58 68 71
24 21 16 16 14 13 16 15 12 13 14 12 14 17 16 17 19 19 18 17 19 21 23 21 20 18 19 20 24 26 28 31 33 32 33 35 35 38 41 47 51 57 60 73
21 17 13 13 11 12 12 11 11 12 13 14 15 18 20 20 19 19 20 20 20 21 22 23 24 26 23 24 24 25 25 26 28 33 35 33 33 34 37 43 47 52 56 65
18 13 13 11 10 10 10 11 12 13 14 15 14 14 16 18 19 20 22 23 23 23 23 22 21 22 24 25 25 25 24 25 26 29 31 29 30 33 34 37 43 49 53 56
18 15 14 12 13 14 15 14 14 14 14 13 14 15 17 19 20 22 22 23 22 21 21 21 21 22 22 22 22 22 25 27 28 29 31 31 30 33 33 37 41 42 45 49
19 17 16 15 17 15 9 13 14 15 15 16 17 19 20 21 22 21 21 21 22 20 20 20 20 21 22 23 24 26 27 28 27 28 26 27 30 31 32 37 38 39 41 43
20 19 18 17 14 15 17 17 17 17 18 19 20 19 20 21 20 20 19 20 20 19 19 20 20 21 23 26 24 23 24 26 27 27 27 27 28 31 33 35 37 37 40 42
18 18 17 16 18 17 17 15 15 17 19 19 20 18 17 20 24 25 23 22 22 21 20 20 22 23 24 19 17 18 20 23 25 29 30 30 32 32 32 34 35 36 39 40
14 17 20 24 18 17 17 17 14 14 15 16 18 19 16 16 19 19 20 20 20 20 20 22 23 22 22 22 20 21 22 25 29 29 30 29 29 30 32 34 35 34 37 40
18 20 25 20 15 16 16 17 18 19 20 20 19 19 19 20 20 20 19 18 20 21 21 20 21 20 21 22 20 21 24 25 27 29 29 28 30 31 32 35 36 35 37 39
28 27 23 20 16 16 19 20 21 21 19 18 16 18 19 20 19 19 20 19 21 19 17 19 21 22 23 23 24 26 26 27 31 31 30 30 30 31 31 34 34 35 38 41
29 24 21 17 20 23 25 29 29 27 22 21 23 21 19 19 20 20 20 20 19 18 18 22 26 27 28 30 29 29 29 31 31 31 30 30 31 31 31 32 33 33 37 40
30 23 20 20 21 26 32 36 30 24 22 25 26 26 26 27 27 28 27 28 27 27 28 35 36 33 32 32 30 29 31 32 30 30 33 31 29 30 32 33 34 32 34 37
28 26 24 27 30 29 29 21 18 19 21 22 22 22 21 22 23 23 25 27 30 36 41 43 38 35 37 36 38 35 31 25 24 24 27 27 31 34 35 36 36 35 35 37
28 27 29 30 28 26 18 16 18 18 17 16 17 17 17 18 19 21 23 24 27 32 29 31 32 30 31 33 36 36 33 29 22 22 24 29 31 38 40 41 40 38 37 38
25 24 26 28 23 17 16 16 14 13 14 15 17 18 19 18 21 20 16 16 19 19 19 22 23 23 25 27 28 28 29 28 28 25 21 20 24 35 40 37 35 35 37 39

GFSNW_250_spd_108.txt.gz
Wind_Speed
88 89 90 90 89 86 83 81 83 84 83 85 83 85 85 86 90 91 88 85 91 89 104 107 103 108 110 110 108 107 100 97 94 101 105 99 97 94 88 75 64 52 45 47
85 86 87 87 85 80 76 71 73 76 74 75 76 77 77 77 81 84 80 78 84 83 89 90 92 93 98 98 92 88 82 75 75 81 86 80 81 80 77 72 58 49 42 49
82 83 84 82 76 67 69 67 68 73 67 68 69 67 71 72 73 75 73 73 74 75 80 82 85 88 89 87 85 81 78 77 74 78 82 83 77 70 64 60 51 45 43 53
82 81 78 75 71 64 60 60 60 61 62 60 60 60 61 62 65 64 65 68 66 65 69 70 71 75 77 78 75 71 68 64 66 64 65 74 64 57 51 51 42 41 52 59
79 79 76 69 63 59 57 55 52 53 55 52 52 50 52 53 52 52 53 56 57 58 59 57 61 62 66 68 66 63 58 55 53 55 59 61 52 44 47 41 39 48 61 62
76 74 68 61 57 54 52 48 44 47 46 45 44 43 43 46 44 43 44 46 45 48 49 50 50 50 54 57 56 54 49 46 46 52 52 44 39 51 52 49 48 57 69 74
70 65 58 53 51 47 45 42 40 41 39 37 34 36 38 39 36 37 43 41 39 40 41 42 42 43 44 45 47 43 41 41 38 48 34 34 53 48 47 45 51 58 64 70
65 58 52 49 43 42 41 37 34 33 31 30 29 31 33 33 33 34 33 30 33 32 33 33 34 33 35 38 38 37 36 33 33 34 26 39 41 42 43 46 49 58 64 74
59 52 47 42 38 37 35 32 29 28 27 26 25 27 28 27 26 26 27 26 25 28 29 31 30 30 31 29 28 29 29 29 29 29 33 35 39 43 44 48 54 63 67 75
54 47 42 35 34 32 29 29 27 26 24 22 20 20 21 23 23 25 25 22 24 25 24 23 24 24 22 22 26 24 24 24 25 27 31 33 40 43 45 50 55 63 68 73
47 41 35 30 30 27 26 26 23 21 20 19 19 18 17 18 18 16 18 21 22 21 21 22 21 22 25 25 24 27 27 27 27 28 30 33 38 40 44 47 52 59 60 65
41 34 29 25 25 23 23 21 18 17 18 15 15 15 16 16 15 17 18 20 17 15 13 14 17 19 20 20 22 25 27 28 27 27 30 36 38 42 46 49 52 58 59 63
35 28 25 21 22 20 18 14 15 15 16 16 15 15 16 17 15 15 18 23 25 25 26 24 21 22 21 19 19 21 24 27 29 31 34 36 39 41 44 46 52 56 61 63
29 24 21 20 19 17 14 12 14 15 14 13 15 14 14 15 16 17 19 21 22 24 27 27 27 26 25 23 24 23 24 29 31 32 33 34 37 40 39 46 52 54 60 63
24 22 19 18 18 16 13 14 15 14 14 13 13 12 12 12 14 16 18 20 19 20 20 21 22 23 24 26 24 22 21 21 22 22 20 25 25 31 39 46 50 54 58 62
23 21 18 17 17 13 10 13 14 14 14 15 16 17 16 16 17 18 18 19 20 21 22 22 21 21 22 23 23 23 24 24 25 22 23 26 29 31 35 41 46 50 55 59
24 20 20 18 13 11 15 17 15 16 17 19 19 18 17 16 17 17 19 19 19 20 21 22 22 21 21 20 20 19 17 18 18 22 22 26 31 34 36 38 41 46 50 55
22 20 20 18 16 18 16 14 15 17 18 18 18 18 18 20 20 21 22 22 22 21 20 20 20 19 17 15 19 22 22 23 25 27 29 31 31 33 35 36 38 43 48 51
20 20 22 23 18 16 14 15 15 15 15 16 16 14 16 19 20 21 21 21 21 20 20 21 20 19 18 18 16 18 20 22 22 24 27 28 28 29 32 34 37 40 42 45
20 24 28 20 20 18 17 17 17 16 17 17 17 18 16 17 20 22 21 21 20 20 21 20 20 19 18 19 19 19 21 22 23 25 28 28 29 32 34 36 38 40 41 43
25 27 22 22 21 18 19 20 19 19 19 21 21 21 19 18 15 16 18 17 17 19 20 20 20 20 20 20 21 22 23 24 24 25 25 27 30 33 34 34 35 38 41 43
28 23 22 23 21 20 20 20 19 20 21 21 21 22 23 23 24 22 21 21 20 19 19 20 21 22 23 23 25 25 26 27 26 27 27 28 29 31 32 33 33 35 38 40
22 18 18 22 24 23 24 24 25 27 23 23 23 21 20 21 22 21 21 21 20 20 23 27 26 26 25 26 26 28 30 31 31 32 32 32 32 32 33 33 34 35 37 39
22 21 22 25 28 30 32 31 25 26 25 23 22 21 22 22 21 21 21 20 20 24 27 29 26 25 28 27 29 29 30 32 33 35 34 33 35 37 37 37 37 37 37 38
26 26 28 32 37 37 25 16 18 23 24 23 23 23 21 20 20 19 20 22 25 30 33 28 26 26 26 25 26 26 27 28 30 32 32 35 36 37 38 39 41 42 41 41
32 32 32 31 28 22 16 16 17 19 21 22 20 19 20 23 26 28 30 33 38 37 33 28 31 31 30 27 28 26 21 21 24 26 30 32 33 36 39 39 39 41 43 44
33 35 32 29 23 18 19 21 22 21 20 21 22 25 27 30 33 36 35 34 35 36 34 29 29 28 28 29 30 29 28 29 28 27 27 28 37 40 41 42 43 43 43 43

GFSNW_250_spd_111.txt.gz
Wind_Speed
78 80 82 82 83 83 84 84 86 82 76 71 70 70 71 71 75 75 71 70 72 79 87 85 81 77 91 87 86 91 89 90 87 88 97 100 101 101 97 95 98 93 71 62
81 82 83 83 81 80 80 79 79 71 65 64 64 64 66 66 69 71 68 66 66 71 77 77 81 78 79 84 87 84 87 90 92 94 99 102 105 102 99 93 89 81 58 47
82 82 80 78 77 75 76 73 71 65 62 61 60 61 62 64 63 63 60 61 61 65 67 69 72 75 77 79 81 78 76 77 76 79 92 99 99 92 87 78 72 63 50 50
80 79 78 77 75 72 69 70 67 64 63 59 57 57 57 56 57 55 54 56 54 56 58 63 63 70 70 71 74 73 68 68 69 72 74 79 84 79 71 69 62 56 55 48
78 75 76 76 73 72 69 64 62 60 59 56 53 49 46 46 45 49 47 49 48 49 51 54 58 61 62 62 64 65 64 60 60 62 68 68 69 62 64 56 49 46 51 43
75 74 73 72 70 66 60 58 55 54 51 48 46 42 41 40 39 42 39 39 42 43 46 49 50 52 58 55 56 58 55 54 56 57 63 60 54 65 57 49 44 47 44 48
73 71 70 69 62 57 55 51 48 47 44 41 40 37 37 38 37 37 34 36 36 40 40 40 41 43 46 46 48 48 46 48 49 52 56 50 56 54 47 40 47 48 42 39
69 67 65 62 56 53 51 47 43 40 40 36 34 32 30 31 29 31 33 32 31 31 31 32 33 35 37 38 39 39 40 40 41 44 46 44 47 41 40 47 49 46 45 47
65 62 60 59 52 49 46 43 37 34 34 31 25 24 23 23 23 26 27 26 25 27 27 28 30 31 32 31 30 30 29 30 32 35 33 37 37 40 42 44 44 48 51 53
59 58 57 55 46 44 42 38 31 30 27 24 22 21 20 19 21 23 21 21 24 25 25 27 27 26 25 28 29 28 29 29 31 32 34 36 31 38 39 40 44 52 55 58
54 56 55 48 41 40 37 31 28 26 23 21 18 17 16 17 19 18 16 18 19 21 22 23 24 25 24 23 24 26 26 27 29 32 33 28 34 35 37 40 44 53 59 62
52 53 51 42 37 35 31 27 25 23 21 18 14 15 14 14 15 17 15 15 17 19 16 17 21 21 23 25 23 24 25 27 28 31 30 32 34 36 38 39 49 55 57 63
49 49 43 36 33 31 26 23 22 20 17 14 13 11 11 12 13 14 16 18 22 24 25 22 22 22 22 21 23 24 25 25 27 29 31 31 32 34 35 42 48 56 59 61
45 45 36 33 30 27 22 20 19 17 15 13 11 11 11 11 14 16 16 17 19 22 27 25 23 23 23 24 23 21 21 22 22 23 26 29 32 35 36 40 46 53 56 57
44 37 32 29 27 22 19 17 16 14 15 14 14 14 13 14 14 13 12 11 12 15 21 23 23 24 23 21 18 16 17 17 18 19 22 26 29 31 35 41 46 51 55 55
36 32 29 27 25 18 14 16 16 14 17 18 16 17 16 15 14 14 13 12 13 15 17 17 18 19 16 16 19 22 21 23 20 18 20 21 23 30 33 38 43 49 53 54
32 29 28 27 22 17 18 17 14 15 18 17 17 17 16 15 16 14 12 15 15 15 17 16 16 15 16 19 21 21 23 24 23 26 27 27 27 30 34 36 41 45 48 52
29 29 29 26 21 20 16 15 15 16 15 15 16 15 15 14 13 13 14 14 14 15 17 16 17 18 18 18 19 19 19 19 20 22 22 24 25 29 31 37 42 44 46 47
30 30 27 25 19 19 17 16 17 16 16 18 18 16 14 14 13 13 13 15 18 18 18 17 16 17 19 18 18 19 20 21 22 23 23 24 27 29 33 37 40 42 44 46
29 28 28 21 23 23 20 19 19 20 22 22 21 19 14 12 12 14 16 17 17 17 17 16 17 18 19 19 19 19 20 21 21 22 23 23 26 29 32 33 35 39 42 45
30 29 23 25 25 21 21 20 21 21 21 22 22 20 18 17 15 15 17 19 20 19 17 16 17 18 18 18 20 21 21 22 22 23 23 24 26 29 32 34 36 39 42 44
32 25 27 27 24 24 21 20 22 23 25 26 25 23 23 21 20 17 15 16 16 15 16 16 17 17 17 18 19 20 22 24 24 25 27 27 28 30 31 34 37 39 41 42
21 23 24 24 25 25 26 29 30 29 26 25 24 26 24 23 23 21 20 20 19 20 21 20 19 20 21 23 24 24 24 25 26 27 28 30 32 32 33 34 35 38 39 41
23 26 27 28 29 32 35 27 22 25 25 25 24 24 24 22 20 19 19 20 23 26 26 23 24 25 26 27 28 31 33 33 33 33 33 33 34 35 38 39 40 41 41 42
29 28 31 33 32 30 23 22 24 25 26 25 24 24 22 21 19 18 19 20 24 23 21 21 23 25 28 29 31 31 32 33 33 34 35 35 35 36 39 40 40 42 44 46
31 31 32 30 23 15 14 21 22 23 24 24 23 21 20 19 20 21 23 25 23 20 23 25 24 25 25 24 24 25 25 25 27 30 31 33 34 37 37 38 39 41 44 46
33 32 27 20 16 14 16 18 21 20 21 19 17 18 18 20 22 23 23 23 23 25 26 23 20 20 22 21 20 22 24 25 23 27 33 33 34 35 37 39 39 41 44 46

GFSNW_250_spd_117.txt.gz
Wind_Speed
97 90 88 84 85 87 85 82 78 78 78 80 81 80 79 73 72 69 65 65 62 61 62 64 67 65 64 67 70 67 65 68 69 75 81 81 83 85 87 85 81 75 71 69
82 79 78 81 83 82 78 76 75 76 77 77 76 75 72 67 66 66 61 58 57 56 59 59 64 63 62 60 63 66 61 67 70 74 75 78 82 83 83 81 78 75 73 67
74 75 77 81 78 77 73 74 74 76 75 72 70 67 66 64 61 59 55 55 49 49 54 52 60 60 59 58 56 58 60 61 66 71 75 76 78 77 76 77 75 75 71 70
73 75 79 74 73 73 70 71 74 76 71 64 64 61 61 60 57 53 51 50 45 45 48 46 50 54 51 53 52 53 53 54 60 65 68 72 74 72 71 71 72 72 67 62
73 74 71 69 70 70 68 70 74 73 66 62 60 56 58 57 53 51 47 46 43 40 39 42 43 43 46 47 50 49 46 51 55 58 62 66 65 63 66 68 69 62 58 50
73 71 68 68 68 67 69 70 71 70 62 59 56 54 58 52 47 43 42 40 39 35 35 38 37 34 37 40 41 42 43 47 51 54 57 57 53 63 62 62 64 63 57 52
70 66 65 64 65 67 68 69 69 66 58 57 52 55 55 46 41 38 38 34 34 31 33 31 30 29 30 34 35 37 38 42 47 52 52 49 54 59 61 60 60 58 52 52
65 64 62 62 66 67 66 67 66 61 57 54 49 49 44 39 36 32 33 30 30 29 26 25 26 25 26 29 31 33 35 38 42 47 47 46 49 54 51 47 50 49 47 47
63 62 63 64 66 66 65 65 63 60 56 52 44 43 38 35 31 28 26 24 26 26 25 24 22 23 24 26 27 28 28 30 35 38 39 39 40 43 44 47 48 50 48 47
64 64 65 65 65 65 63 63 61 59 53 45 43 34 33 31 27 24 23 21 21 21 20 19 19 19 20 20 20 23 25 27 29 29 30 33 37 35 41 46 47 48 46 48
65 66 65 65 65 61 61 60 57 55 46 41 39 30 27 24 24 22 21 18 16 16 16 16 16 16 13 14 16 15 17 20 21 22 24 24 27 32 37 38 39 42 43 42
68 67 66 66 62 56 58 56 53 50 38 38 34 30 25 20 19 19 17 14 12 13 15 14 14 12 10 8 8 10 12 14 16 18 18 20 23 29 31 33 31 30 31 27
69 67 66 63 57 52 53 52 49 42 32 36 28 27 22 18 15 14 13 10 10 12 12 10 9 8 8 8 8 9 11 12 13 11 12 16 18 22 25 26 27 24 25 30
69 66 61 58 55 49 49 48 45 35 29 32 26 21 20 16 11 9 8 6 5 6 5 5 7 9 10 10 10 12 12 11 12 13 15 17 18 19 20 20 17 20 24 28
64 62 60 57 52 46 46 42 40 31 31 25 24 17 15 15 11 6 4 1 2 1 3 4 10 11 11 12 13 12 11 11 9 11 11 13 14 16 16 18 20 22 25 27
63 60 57 53 47 43 38 38 35 29 29 22 19 14 14 12 11 8 4 5 4 4 4 7 10 12 15 16 15 13 14 13 13 11 11 11 11 12 14 15 16 18 20 22
60 56 53 47 39 36 33 35 32 26 24 20 14 13 12 10 10 9 7 5 8 7 5 8 11 15 16 16 17 15 16 16 16 17 16 15 16 14 13 13 15 16 17 20
53 51 45 36 31 34 35 32 28 25 23 17 11 12 10 10 11 11 9 11 11 7 10 12 14 16 17 16 15 15 16 16 18 19 19 16 15 14 14 15 16 16 18 20
47 42 34 29 31 40 30 31 26 24 22 14 12 14 14 13 14 15 15 14 10 9 14 16 16 16 16 16 16 15 15 15 15 16 16 17 17 17 17 18 19 18 20 20
39 35 29 31 41 36 28 29 25 25 19 13 16 17 16 16 16 16 14 12 13 14 16 17 16 15 16 16 15 14 15 14 14 14 16 17 18 18 18 19 19 20 21 22
33 32 36 43 41 28 29 30 27 24 18 17 20 18 18 17 16 14 13 12 11 14 16 15 15 15 15 14 14 15 14 15 17 18 18 19 19 20 20 20 20 21 23 24
38 41 42 38 27 29 33 30 29 21 20 21 19 18 16 16 16 13 13 12 11 12 12 14 14 13 13 13 14 14 15 16 16 18 19 19 20 22 22 23 23 23 24 26
34 34 30 25 30 35 30 27 21 17 19 19 19 18 18 18 19 18 19 17 15 15 14 15 14 14 15 15 15 16 16 17 18 18 20 21 22 23 24 25 26 26 25 26
28 25 27 33 36 29 27 21 19 21 20 17 17 17 20 21 20 20 19 17 15 15 16 16 16 16 17 17 17 17 17 18 19 20 21 22 23 24 25 26 27 29 30 29
29 35 37 33 24 24 21 21 23 22 21 20 19 20 20 20 19 18 16 14 12 14 15 16 16 16 14 14 15 16 16 16 17 19 21 22 23 24 25 26 27 28 30 32
34 34 27 22 22 21 23 23 21 17 16 16 17 18 17 17 17 16 15 16 17 17 16 16 15 14 13 12 11 14 16 18 20 23 25 27 29 30 31 32 33 33 33 34
27 20 19 19 20 22 23 22 19 17 15 15 15 16 16 13 15 16 16 15 15 14 14 15 14 13 13 14 16 19 22 25 26 27 28 30 31 31 31 32 34 35 36 39

GFSNW_250_spd_120.txt.gz
Wind_Speed
102 104 105 104 103 102 93 93 95 87 86 87 88 89 86 84 81 80 78 75 72 69 66 66 67 66 59 56 57 57 54 60 67 72 73 78 77 77 79 82 80 79 80 84
101 100 97 95 94 90 90 90 85 85 83 82 86 84 81 79 80 79 76 74 69 64 63 57 61 59 54 54 51 53 49 56 61 71 73 76 78 78 81 83 80 80 81 79
92 92 92 89 87 82 81 82 80 78 80 82 80 77 77 79 76 75 74 70 64 60 57 50 52 54 51 49 48 47 46 48 57 65 72 75 78 78 80 78 78 79 75 77
80 82 80 82 78 78 79 76 75 76 78 76 74 74 76 74 75 72 68 62 57 54 48 42 43 45 44 42 45 44 45 48 52 60 66 68 75 79 75 73 73 71 75 74
71 71 71 73 75 70 71 73 75 77 72 71 70 71 72 70 67 66 61 55 50 44 41 38 37 37 38 35 37 38 40 41 44 52 60 64 68 70 69 69 70 69 69 67
67 66 69 69 69 69 71 74 73 69 65 67 69 69 67 63 63 57 53 48 43 39 36 33 30 31 33 33 31 33 35 37 41 48 52 56 56 64 68 68 68 63 63 64
66 67 65 68 68 68 71 70 68 62 64 66 66 66 62 59 56 52 48 41 38 34 31 28 25 26 27 30 29 30 31 34 38 44 46 51 57 58 57 56 58 57 53 57
65 65 67 66 68 68 66 62 61 62 64 65 63 61 57 55 50 48 41 35 34 31 27 24 23 21 23 26 27 26 26 28 34 38 41 44 46 48 49 49 53 53 47 51
64 63 63 64 64 61 58 57 60 61 63 62 58 58 52 49 46 42 36 31 28 26 24 21 18 18 19 21 24 24 23 25 29 34 35 37 39 44 47 46 50 44 48 52
62 61 61 62 60 56 56 57 60 61 60 59 56 55 49 43 37 35 32 27 23 21 20 17 15 14 15 17 16 18 18 20 23 25 27 29 30 35 40 42 45 45 46 49
58 59 58 55 55 54 55 57 59 60 55 56 56 51 45 40 29 28 26 23 19 18 17 14 11 12 12 12 13 14 15 16 18 20 21 25 29 32 35 38 41 41 44 44
56 55 54 55 54 56 57 58 58 58 54 54 53 46 40 35 24 21 19 17 15 14 12 9 9 9 11 12 12 13 12 13 15 17 18 21 22 25 29 34 35 37 35 36
53 55 57 57 57 59 59 57 54 54 55 49 52 42 33 30 19 16 14 13 9 8 7 6 8 9 10 11 12 11 11 11 13 15 17 18 19 19 20 23 25 28 30 28
58 59 60 61 59 59 60 55 50 51 53 49 46 36 27 25 18 12 11 10 5 4 5 7 6 7 9 11 11 12 11 9 10 10 13 15 16 17 18 16 18 23 26 28
64 64 64 63 60 59 58 51 49 48 49 46 39 32 23 21 18 10 9 9 7 6 8 7 6 7 8 10 10 11 11 11 11 10 7 8 11 12 14 17 19 20 20 23
67 67 65 63 60 58 54 51 44 44 45 43 30 27 21 19 15 8 8 10 9 10 11 7 5 8 10 12 12 12 13 13 14 14 13 13 12 14 14 14 14 17 17 20
68 66 64 60 58 56 55 45 40 40 42 37 26 21 19 17 12 9 8 11 11 11 9 8 9 9 12 13 15 15 15 14 16 16 14 13 14 14 13 14 14 14 16 18
65 63 61 58 57 56 49 39 35 36 41 30 23 17 19 15 13 10 11 11 12 10 9 8 10 11 14 16 15 17 17 18 18 19 19 17 14 14 15 15 14 15 17 17
62 60 56 54 55 55 39 32 29 37 37 24 19 17 19 14 13 12 13 13 13 12 11 8 11 14 15 14 15 15 17 16 16 16 16 15 14 14 15 14 14 14 15 16
56 52 52 54 56 39 34 28 33 41 28 21 18 21 17 13 13 12 12 12 14 13 12 12 13 14 14 13 13 13 12 11 10 13 14 14 14 14 14 14 14 14 15 16
44 49 50 51 47 35 29 33 41 31 22 21 20 21 15 13 14 13 14 15 13 10 11 13 14 14 15 12 13 12 12 12 12 12 12 13 14 14 14 15 15 14 15 16
49 45 43 40 35 28 34 41 33 21 21 21 22 18 15 15 15 15 14 14 11 10 12 14 14 13 11 11 12 13 13 13 13 14 14 14 15 16 17 18 19 19 19 19
36 34 31 31 27 34 40 31 19 22 25 23 22 17 16 15 15 16 16 15 14 15 16 15 15 15 16 17 16 15 15 15 15 16 17 17 18 19 20 21 21 23 22 22
30 29 29 30 36 36 26 19 24 28 25 24 21 18 17 17 17 17 18 17 18 19 18 18 19 19 18 16 15 15 15 14 14 15 15 16 18 19 20 22 23 24 25 26
29 29 31 32 29 20 22 28 28 26 25 22 22 22 20 19 18 19 17 18 19 19 19 19 19 18 17 16 16 16 16 17 19 20 22 23 25 26 27 28 28 28 29 28
29 29 26 23 19 24 27 28 27 25 21 21 21 20 21 20 18 18 18 18 20 21 20 20 20 20 20 21 21 20 21 22 24 25 26 28 29 29 29 30 30 31 32 32
24 19 15 20 27 27 28 27 24 22 20 20 18 17 16 16 16 16 19 21 21 20 21 21 21 20 19 17 18 20 22 24 25 27 28 27 28 29 29 28 28 29 31 32

GFSNW_250_spd_123.txt.gz
Wind_Speed
100 101 100 99 95 96 97 95 96 96 99 102 104 101 100 101 99 97 98 95 92 90 83 81 77 73 68 61 56 54 54 48 52 59 66 62 69 71 75 74 72 67 67 70
106 105 105 104 100 99 98 97 100 100 98 96 98 98 96 95 97 96 92 90 87 82 81 76 70 68 62 57 53 51 47 48 48 54 63 56 67 71 72 76 75 69 69 69
101 100 99 96 97 102 101 98 97 96 94 94 94 92 92 94 92 91 88 86 82 80 76 71 65 60 55 50 49 47 46 46 47 49 58 59 65 70 68 74 72 73 71 74
91 95 94 93 92 93 93 95 91 94 92 89 89 90 91 89 86 84 81 81 79 74 70 64 56 49 45 42 42 41 41 40 41 42 51 58 57 63 66 68 70 73 76 78
77 79 80 77 84 83 89 88 80 82 81 82 83 87 85 82 80 78 77 76 71 67 62 53 45 41 39 36 35 37 37 36 38 41 47 52 53 59 65 62 69 71 74 72
72 75 74 75 74 77 75 75 75 75 75 77 79 77 76 75 74 75 73 69 65 58 50 44 39 37 35 33 31 31 32 32 34 42 43 46 47 53 61 64 65 66 70 69
68 69 69 68 69 70 70 71 72 73 73 75 73 71 71 69 72 69 67 63 57 48 42 39 34 32 30 30 28 26 26 28 29 34 39 44 47 51 56 56 54 57 59 61
67 68 67 67 68 70 68 68 69 70 71 70 67 67 66 67 69 63 61 55 47 41 36 34 29 25 25 25 24 22 23 24 27 28 32 38 41 46 49 52 55 54 46 50
69 69 67 67 67 67 66 66 67 68 66 64 63 62 62 65 63 56 53 48 42 37 32 27 23 21 20 20 19 18 18 19 22 24 25 31 35 39 43 45 49 46 44 48
66 65 64 66 65 64 64 63 63 61 59 58 59 60 60 62 56 50 46 44 38 33 27 20 18 18 17 17 16 14 16 18 19 20 21 24 29 33 37 41 44 44 49 53
60 62 65 64 63 63 62 62 58 54 53 57 57 60 60 56 51 45 41 39 33 28 23 17 16 15 14 13 13 14 14 16 18 18 20 22 25 30 33 37 39 43 46 50
61 62 61 62 59 60 59 56 51 48 50 55 57 60 57 52 48 41 34 35 29 24 19 16 14 12 12 12 13 12 13 13 15 16 17 20 22 27 30 33 35 38 40 43
60 61 59 59 59 56 52 50 49 49 51 54 57 58 53 49 44 39 31 30 25 21 19 14 11 10 10 11 12 11 11 11 11 12 14 17 18 21 24 26 25 28 30 33
59 60 59 58 55 51 49 47 47 52 54 54 56 54 50 44 40 36 26 26 21 20 17 12 10 9 10 11 9 9 10 10 11 11 10 13 15 17 19 19 23 27 31 33
55 57 56 52 50 50 48 46 49 54 56 56 52 51 48 41 36 32 24 23 19 18 14 11 10 8 8 9 9 10 11 12 13 15 14 12 15 18 20 21 22 24 27 28
57 56 52 50 51 50 49 49 52 55 57 54 50 49 48 35 34 27 22 22 18 17 14 12 13 9 9 10 10 10 11 13 15 15 16 15 13 13 17 18 19 19 19 22
56 55 54 55 54 51 52 55 54 56 54 52 49 48 45 32 30 24 21 19 18 15 14 13 12 8 8 11 12 13 14 15 14 14 15 16 17 16 15 17 18 18 20 21
61 61 59 56 54 55 58 56 55 54 52 50 47 48 37 30 26 21 19 18 18 13 15 13 12 8 10 12 11 13 15 16 16 15 15 15 15 15 16 18 19 20 20 20
64 61 57 55 57 63 56 56 52 52 51 45 43 45 29 29 22 18 17 14 16 14 14 12 11 11 12 12 12 12 14 14 14 16 14 14 13 12 13 14 15 15 17 18
59 57 58 60 64 57 55 50 48 50 48 40 39 40 28 24 19 18 15 12 15 13 13 13 10 10 11 10 9 12 11 12 11 11 13 14 14 14 14 15 15 15 16 17
55 56 60 62 61 54 48 45 45 43 44 38 40 32 29 21 18 17 13 14 15 14 14 15 12 10 12 12 12 11 14 14 13 11 12 14 15 16 17 17 17 16 17 18
56 61 60 57 51 42 39 38 38 43 46 34 37 29 26 21 19 16 13 14 15 15 16 15 13 12 13 13 13 13 15 16 17 16 17 16 16 17 17 18 18 18 18 18
56 53 50 46 39 31 33 37 43 46 20 33 33 29 24 22 21 17 16 17 20 20 19 16 15 15 16 16 16 17 17 18 18 17 17 17 17 19 20 21 22 23 23 22
46 44 40 38 30 34 42 46 36 10 27 34 28 28 24 24 21 20 19 21 23 22 19 18 18 18 19 19 19 18 18 17 17 19 21 21 22 24 26 26 27 26 26 26
37 33 33 37 40 42 35 25 18 31 33 26 28 26 26 27 23 21 21 23 22 21 20 20 21 21 19 18 19 20 21 22 23 23 24 26 27 27 28 28 27 26 26 27
32 34 37 37 31 25 21 24 34 32 26 27 27 27 28 26 24 22 22 22 22 21 21 22 22 21 21 21 22 22 23 24 25 26 27 28 28 28 27 27 28 29 30 31
33 33 25 22 21 23 30 33 30 27 27 28 28 28 26 23 22 22 23 23 24 24 23 22 23 23 24 25 26 26 27 28 30 30 29 29 28 28 28 28 28 28 28 29

GFSNW_250_spd_126.txt.gz
Wind_Speed
102 104 104 103 101 103 100 98 99 98 95 94 93 93 92 96 99 99 103 104 104 106 103 100 99 94 88 81 77 68 63 59 56 55 59 57 56 59 59 60 65 65 64 60
95 96 98 102 102 101 100 98 99 100 97 97 96 96 99 102 102 103 104 104 104 103 99 94 91 86 79 76 71 63 59 55 50 52 52 52 54 59 57 63 65 62 60 60
84 88 91 96 97 95 95 94 96 96 98 97 97 97 96 94 99 100 99 100 99 96 93 90 84 80 75 68 63 57 53 48 46 45 47 48 48 52 55 62 62 57 56 58
73 76 81 83 84 84 87 91 91 93 92 92 91 89 87 92 92 93 94 94 92 89 89 83 78 72 67 60 54 48 44 42 40 41 43 42 45 45 49 56 55 51 58 57
70 69 69 68 71 73 76 79 81 82 75 71 76 79 82 86 83 87 87 86 85 84 78 75 72 65 57 49 44 39 38 37 35 36 40 37 39 41 43 49 50 52 54 58
55 54 57 60 63 66 69 69 65 60 67 69 72 78 80 77 81 82 81 81 81 75 73 69 62 55 48 41 37 34 31 29 29 32 34 36 38 42 42 49 52 55 53 57
60 58 62 63 63 63 62 60 57 60 66 66 69 73 75 76 79 79 78 77 71 68 66 60 52 45 39 34 34 29 26 27 28 28 32 33 34 34 38 47 46 49 51 56
68 64 66 64 60 63 61 59 59 62 63 64 68 72 74 76 75 75 72 68 66 63 59 52 41 36 35 33 30 27 24 24 25 24 27 27 29 32 34 41 47 43 46 47
66 67 71 67 62 59 57 58 59 62 62 64 68 68 71 72 71 67 64 64 60 58 51 43 37 33 31 29 26 23 23 23 22 23 24 26 27 30 31 36 41 44 46 44
64 63 61 61 62 59 58 58 60 62 65 66 67 67 67 66 63 60 60 59 55 51 44 37 33 31 28 24 21 19 20 20 20 21 21 23 25 27 30 35 39 40 37 36
64 63 63 59 54 55 54 57 60 61 62 63 62 64 63 58 56 56 58 56 48 44 39 34 31 29 24 20 17 16 17 16 16 16 16 18 23 26 28 30 35 37 38 40
62 61 61 55 54 57 54 54 56 56 59 61 60 60 56 53 54 54 54 52 45 38 35 31 28 25 21 18 15 14 14 14 14 14 15 19 20 22 26 29 30 33 35 37
59 55 54 53 54 54 53 54 53 55 56 54 56 55 52 51 51 53 52 47 41 33 33 28 26 23 20 16 13 12 12 12 13 12 13 13 15 17 19 22 26 27 30 35
58 56 53 53 52 53 53 54 55 53 50 52 51 51 51 49 49 50 49 43 38 32 31 26 23 20 18 13 10 9 11 12 11 11 12 13 14 15 15 18 19 21 25 29
57 53 55 55 53 54 52 52 52 51 48 45 48 52 50 48 49 49 45 39 35 30 28 24 22 19 17 12 9 9 11 11 12 13 12 13 14 15 17 20 23 25 28 30
57 57 56 56 55 55 53 51 50 48 46 44 47 51 48 48 47 46 42 35 31 28 24 22 21 18 17 12 8 9 10 12 11 12 12 14 13 13 16 17 20 20 21 21
55 56 56 55 55 51 51 50 50 48 47 46 48 48 48 47 46 41 37 30 27 25 21 20 19 17 16 13 10 11 13 14 12 12 13 13 14 14 13 13 14 15 16 19
57 57 55 55 53 51 50 49 48 48 49 49 48 46 48 48 44 38 34 27 25 22 18 18 18 18 18 14 12 12 13 13 13 12 12 12 12 12 12 13 14 15 16 17
54 53 50 50 49 50 49 49 48 50 52 50 43 47 46 48 40 34 32 25 23 19 15 14 18 17 18 14 11 12 11 14 13 12 13 13 15 15 13 15 15 16 18 19
53 52 52 51 53 54 50 49 49 53 54 48 41 47 47 46 33 28 27 23 22 18 14 12 16 16 17 13 11 11 12 12 12 11 11 13 13 12 12 13 16 16 17 18
57 57 58 58 58 55 52 50 51 51 51 50 42 44 47 45 35 26 27 23 24 21 16 14 16 17 16 14 12 11 11 14 15 13 12 13 15 16 17 18 17 18 18 19
62 61 60 60 56 51 48 49 48 51 53 55 40 41 44 42 33 26 26 24 25 20 17 17 17 19 17 16 14 12 14 15 15 16 18 18 18 18 18 18 19 20 21 22
61 59 55 53 50 46 44 46 50 51 53 48 44 42 40 37 31 26 26 26 26 22 20 20 18 19 19 17 16 17 18 17 19 20 20 19 19 20 22 23 24 24 25 25
57 54 52 51 43 41 47 52 49 49 46 46 38 38 36 31 28 27 27 27 26 25 21 21 19 20 21 20 20 20 21 20 19 20 21 23 24 25 26 26 26 26 24 23
50 46 44 43 41 43 45 46 44 42 43 39 40 31 29 28 27 28 28 29 27 23 22 22 22 24 23 22 22 21 20 20 22 23 25 26 26 27 27 27 26 27 27 28
40 39 39 41 38 40 41 42 40 37 36 36 34 30 30 28 29 28 28 29 27 26 26 24 23 23 21 21 22 23 24 24 24 24 26 27 26 27 27 27 27 28 28 30
37 38 38 36 39 36 34 32 30 31 36 33 27 30 29 28 27 26 27 28 28 29 25 23 22 22 22 22 23 23 25 25 25 27 29 29 28 29 30 29 30 30 30 30

GFSNW_250_spd_129.txt.gz
Wind_Speed
88 90 93 98 103 107 102 104 105 105 109 110 112 111 112 107 107 107 104 101 97 97 99 98 98 97 95 92 89 84 81 73 64 65 64 61 61 60 58 61 59 55 52 48
77 80 82 87 93 96 95 97 98 102 106 108 105 104 105 105 104 102 102 100 97 97 99 97 95 93 91 87 84 79 73 71 64 59 56 53 51 50 53 54 49 49 49 52
69 72 75 76 77 81 85 87 87 92 94 96 98 98 99 101 98 97 94 94 95 95 91 88 88 87 85 79 77 72 67 62 55 51 49 44 42 40 45 43 38 43 49 50
58 61 63 67 72 75 78 79 82 82 84 87 89 90 89 89 89 87 86 85 86 84 84 85 81 82 77 73 70 67 60 52 48 45 44 38 33 36 36 34 37 39 46 45
47 49 52 54 55 59 62 67 69 72 73 74 77 78 78 77 76 75 76 81 79 80 80 76 79 74 70 68 65 57 50 45 43 41 40 35 31 30 32 32 36 46 47 43
37 41 43 43 50 54 56 55 55 57 58 58 61 63 62 64 65 69 73 73 75 76 75 73 72 68 67 62 55 49 44 41 37 37 38 35 28 29 27 30 37 42 45 43
48 51 52 50 53 51 48 44 46 46 49 54 56 54 56 58 63 68 70 70 72 70 69 68 65 65 62 52 45 40 35 33 32 30 31 29 23 27 27 32 35 39 41 40
54 54 53 56 45 39 40 45 46 49 51 52 53 52 55 60 64 65 66 67 68 66 64 63 63 59 50 43 37 34 32 31 29 27 27 27 24 25 27 30 33 37 41 41
61 59 53 52 48 47 45 48 51 55 53 51 54 56 58 59 60 61 63 63 63 63 60 62 58 50 43 35 30 29 29 27 26 25 25 25 22 21 24 28 30 35 36 40
64 60 62 60 56 56 53 55 57 55 54 55 55 55 56 59 56 60 60 61 60 56 57 57 51 43 35 29 27 27 24 23 21 21 20 21 19 20 22 24 26 28 33 40
64 64 63 58 59 58 54 49 49 49 50 50 52 51 54 55 55 55 58 58 55 54 55 50 44 36 29 26 24 23 21 19 18 18 20 20 19 20 22 22 25 29 32 36
65 63 59 56 54 53 54 51 50 52 49 46 47 48 50 51 50 52 56 54 53 55 49 44 35 30 26 24 23 21 18 15 16 16 17 17 18 17 16 19 21 24 28 31
73 74 68 65 61 58 54 51 50 47 45 45 48 49 47 48 50 51 52 50 55 52 44 39 31 27 23 22 21 20 16 14 13 13 13 14 15 13 13 14 16 19 22 27
72 68 69 70 64 60 54 50 48 44 45 45 46 46 48 48 48 49 49 51 53 47 42 35 28 25 20 22 20 19 15 11 10 11 12 13 12 12 13 14 15 18 21 24
71 75 75 71 67 57 50 47 44 43 45 44 46 44 46 46 46 46 48 52 49 42 38 30 26 23 19 19 18 17 14 10 9 10 11 12 12 13 12 14 16 19 21 24
63 63 59 58 57 54 50 49 46 47 47 46 47 45 45 44 44 46 49 49 43 39 34 26 24 22 19 17 19 17 15 10 8 7 9 12 13 14 14 14 16 18 20 21
52 53 52 53 49 49 49 47 47 48 48 47 46 46 45 44 44 47 49 46 39 35 31 25 22 20 18 15 17 19 17 12 10 9 8 10 11 12 11 12 12 13 15 17
47 47 47 46 49 49 48 48 46 46 47 45 44 45 43 44 46 47 49 43 35 31 26 22 20 18 16 15 18 20 17 11 11 11 9 9 10 11 11 11 13 15 14 14
42 41 42 46 47 48 48 46 45 46 46 45 43 42 43 46 47 47 45 41 34 28 25 21 19 18 14 15 17 17 14 11 10 10 9 11 12 14 14 13 14 14 16 16
40 40 43 45 44 44 43 42 44 44 45 44 41 43 44 47 49 46 41 36 33 27 24 21 20 19 14 15 16 16 13 11 10 9 9 11 13 15 13 14 14 15 16 16
43 42 42 43 41 40 38 39 41 44 46 46 44 44 46 51 49 43 39 34 31 27 23 20 21 19 14 14 16 17 13 12 12 13 14 14 15 16 16 17 17 16 17 18
53 50 46 43 40 38 37 39 43 47 51 50 45 46 46 48 47 39 40 34 31 26 22 21 23 20 18 15 15 18 16 16 16 17 18 20 21 19 18 18 19 21 22 22
54 50 46 45 43 41 42 47 50 52 50 49 48 46 46 44 41 39 38 33 31 25 23 22 23 23 23 19 19 19 19 21 20 20 21 19 19 19 20 21 23 23 23 22
53 53 52 50 48 47 50 48 49 51 49 48 49 46 42 40 39 37 35 32 29 27 23 23 22 27 22 19 21 22 25 24 22 18 17 18 19 22 23 22 22 22 22 22
50 50 50 50 47 47 47 45 48 49 49 50 47 41 38 37 34 35 31 29 27 24 23 22 24 26 24 24 25 25 25 22 20 19 20 22 23 24 24 23 22 24 24 25
46 42 43 44 43 44 45 47 48 47 47 46 39 35 39 34 32 30 29 27 25 23 23 23 24 24 25 24 24 25 23 20 21 22 25 25 24 25 25 25 26 27 26 28
39 41 41 43 43 44 44 44 46 44 43 40 34 33 37 28 29 26 27 24 23 24 23 21 22 24 25 24 22 21 22 22 22 23 26 28 28 28 28 28 29 28 29 30

GFSNW_250_spd_132.txt.gz
Wind_Speed
98 104 110 109 109 111 109 110 109 105 105 105 101 102 102 103 103 107 107 111 112 113 117 119 120 124 125 120 107 101 98 89 80 76 72 70 70 72 70 69 69 61 57 58
73 76 81 86 92 97 101 103 104 101 98 100 98 97 98 101 102 105 106 107 114 115 118 122 119 116 108 104 98 95 88 84 75 73 71 64 63 59 57 56 55 53 41 39
66 68 69 71 75 77 81 87 88 89 87 90 89 92 92 95 98 101 99 102 106 110 112 106 103 101 98 95 90 81 77 75 69 66 64 56 52 48 49 48 45 41 33 37
58 60 62 65 65 65 66 68 68 70 71 75 77 78 80 82 83 84 87 90 89 92 94 92 92 90 85 79 77 74 71 68 63 56 51 45 43 42 43 39 35 35 33 39
52 53 54 53 54 53 54 52 53 55 58 60 60 62 65 69 71 75 78 77 79 82 85 83 81 75 74 72 69 67 62 63 58 46 44 41 36 37 37 37 32 33 31 39
45 47 48 44 44 42 43 47 48 49 51 54 56 59 59 60 62 63 66 66 68 68 67 67 67 69 68 65 63 62 57 55 50 44 41 38 33 33 34 31 29 31 32 38
37 39 39 39 37 41 42 42 42 37 42 45 44 46 46 45 46 50 53 59 60 58 59 62 65 64 61 58 58 56 51 45 42 40 36 31 27 26 28 26 28 29 32 36
36 34 33 31 30 27 26 30 33 37 40 42 41 37 39 41 44 50 54 55 53 55 58 60 59 57 55 55 52 48 43 39 37 32 30 28 24 20 22 25 25 27 31 34
36 34 33 34 36 34 36 41 40 35 31 32 36 39 42 44 49 51 51 51 53 54 54 54 55 52 53 50 48 41 38 33 31 28 26 25 20 18 19 21 22 25 26 30
41 40 37 36 38 37 38 44 43 36 33 31 35 42 48 53 53 52 49 48 47 49 51 53 51 51 50 49 42 36 32 29 26 25 24 22 19 18 19 20 20 24 26 28
47 46 46 44 42 42 42 40 36 37 39 40 45 49 42 44 44 45 45 44 47 46 50 49 48 48 49 44 36 32 27 24 23 23 21 18 19 16 18 18 19 20 21 23
51 51 51 47 47 49 48 43 41 44 47 44 40 39 42 44 43 43 44 45 44 46 47 45 46 46 44 36 31 26 22 21 21 20 17 16 15 15 16 15 15 17 19 18
50 54 53 55 52 48 50 52 48 45 42 39 41 42 42 41 41 42 41 43 43 45 42 45 44 44 38 31 27 23 19 18 18 16 14 12 12 13 13 14 13 15 17 17
58 54 55 55 55 50 48 48 48 50 46 47 48 50 45 40 40 40 40 42 42 43 43 46 44 42 34 28 24 20 16 16 16 14 10 9 10 10 12 13 14 14 15 17
62 62 55 53 58 57 54 52 54 55 55 52 47 45 39 39 40 40 41 42 41 40 45 46 45 39 32 26 22 18 16 15 15 13 9 7 7 9 12 13 13 15 16 17
60 64 63 59 54 56 57 60 57 53 54 53 51 46 42 41 41 41 41 40 39 41 44 44 44 37 29 24 21 18 14 15 15 12 10 7 7 9 12 13 14 14 15 17
61 59 62 65 64 61 64 61 61 59 59 55 48 46 44 43 41 40 38 38 39 41 43 42 39 31 25 21 20 18 14 15 16 14 11 10 8 9 10 12 13 14 14 14
53 55 59 57 60 65 65 63 61 57 52 48 45 42 40 40 40 39 37 38 40 41 40 38 33 26 22 20 19 17 15 14 14 13 11 12 12 12 12 13 14 14 14 14
41 45 47 49 49 51 54 52 51 49 46 44 43 41 39 38 37 36 35 39 43 40 37 35 30 23 20 19 19 18 14 13 13 13 11 13 14 14 15 15 15 15 14 16
39 40 40 39 40 41 43 43 43 43 44 43 41 40 36 35 35 36 38 42 45 40 37 33 28 23 20 18 19 17 15 15 16 15 14 15 15 14 14 14 14 17 17 15
40 37 35 36 37 38 38 38 40 41 39 37 36 33 34 36 36 38 41 43 44 39 35 31 26 21 19 19 21 19 16 17 19 18 17 16 15 16 16 16 15 16 17 17
42 37 35 33 32 33 33 35 38 39 37 31 30 32 35 37 40 41 42 42 44 41 33 29 23 22 22 21 21 21 17 18 20 20 19 19 20 19 17 16 17 18 18 18
44 40 35 33 32 29 30 35 37 34 33 31 32 34 37 39 42 44 42 40 44 40 32 27 21 23 24 21 20 23 22 20 21 23 22 20 18 19 20 20 20 20 19 18
48 45 42 38 34 34 36 36 37 36 35 34 35 39 41 40 42 42 41 40 40 35 30 22 21 22 24 20 20 23 22 22 23 24 23 20 19 19 19 20 22 22 20 20
51 49 44 40 39 39 40 39 39 39 41 40 41 42 42 41 42 44 41 40 35 31 26 21 20 21 23 20 20 23 23 23 24 23 20 20 20 22 23 23 23 23 25 25
51 47 45 44 43 43 43 43 43 44 43 43 42 42 40 41 44 44 38 36 31 27 23 21 19 20 21 20 19 20 22 22 23 22 21 22 24 26 26 25 26 27 28 28
45 46 46 46 45 45 45 45 44 44 45 44 41 40 40 42 44 36 33 30 27 23 21 20 18 18 19 19 19 21 21 22 22 22 25 27 27 28 28 29 30 32 33 33

GFSNW_250_spd_135.txt.gz
Wind_Speed
107 111 111 117 120 112 115 117 112 109 108 105 106 104 106 108 107 108 110 109 104 107 109 108 109 111 110 110 113 118 116 119 116 114 112 109 106 101 87 82 78 81 79 70
81 86 93 95 97 100 103 105 101 104 103 101 103 102 107 107 108 105 105 105 104 105 104 104 105 106 106 106 110 110 114 114 110 106 100 97 94 85 78 72 70 70 65 59
67 69 74 78 82 86 88 91 94 97 97 97 98 101 97 100 100 99 97 97 94 100 97 97 96 96 98 99 99 100 101 99 97 94 91 85 77 74 72 69 63 56 49 43
61 62 62 65 66 67 71 75 77 81 85 88 92 89 86 87 88 86 84 81 81 80 79 79 78 80 82 85 89 91 92 93 86 82 75 72 68 64 57 56 48 45 38 38
53 55 55 56 58 59 59 58 57 60 63 64 67 66 66 67 65 60 60 58 60 62 65 68 71 74 77 79 83 84 80 78 73 69 66 64 58 49 44 41 38 38 33 35
43 44 47 50 51 52 50 49 52 52 52 53 51 49 49 47 47 47 48 53 55 57 60 63 66 67 69 71 73 71 68 66 65 62 59 55 46 38 40 38 35 30 29 33
39 40 42 42 42 43 43 43 44 45 43 44 42 39 38 40 41 43 45 47 50 53 55 56 58 61 63 65 64 62 61 58 57 54 47 42 40 35 35 34 30 29 28 32
34 34 37 37 36 37 35 35 36 36 36 35 36 36 39 39 36 38 40 43 46 48 49 53 56 56 57 56 56 56 54 53 50 42 39 39 35 32 30 31 29 26 25 28
35 33 32 32 35 36 36 36 37 35 35 37 37 32 33 35 38 38 40 45 47 46 50 51 50 52 51 50 52 51 50 46 38 36 35 34 29 26 26 27 27 26 24 26
30 34 34 36 39 38 40 40 38 38 32 28 26 29 30 26 28 34 39 46 49 45 44 46 48 48 47 46 49 49 44 39 34 32 31 28 25 22 21 20 22 21 22 21
32 38 38 40 38 35 34 31 31 32 33 30 30 25 24 29 35 40 44 42 42 42 43 43 44 44 43 46 46 42 37 35 33 30 27 24 21 19 18 17 16 17 18 17
32 38 33 36 31 31 29 31 31 30 28 27 26 26 31 37 39 37 39 39 38 39 40 40 42 41 42 44 42 37 33 30 30 27 22 20 19 16 15 15 14 14 15 16
39 32 34 36 35 35 31 30 30 28 28 31 33 32 35 33 34 37 41 40 37 37 37 40 41 39 42 41 35 32 30 28 24 22 19 17 16 13 13 12 13 15 15 16
42 42 39 40 40 37 38 39 36 35 36 35 35 35 35 40 38 39 40 38 37 36 37 40 39 40 39 38 33 30 28 25 22 18 16 15 13 11 11 11 13 14 15 16
45 43 42 43 45 40 41 40 41 43 38 37 37 38 40 41 42 41 42 41 39 38 39 38 38 41 39 36 34 30 26 23 19 16 16 14 13 11 8 10 11 13 14 16
47 45 47 45 41 40 40 42 40 42 43 44 44 46 46 43 42 45 39 40 39 37 36 35 38 42 41 36 34 29 25 22 19 15 15 15 14 12 9 10 10 9 12 13
45 46 50 49 46 46 45 43 43 42 42 44 44 43 43 43 46 42 38 37 37 36 35 36 39 40 39 34 32 28 24 20 20 15 16 15 14 13 12 12 12 13 14 15
44 45 48 51 51 49 49 47 44 47 47 49 50 49 48 49 46 38 34 34 35 33 33 36 39 38 36 31 29 27 23 19 19 16 15 16 15 15 16 15 15 16 15 13
41 44 48 47 49 50 48 47 46 45 49 50 48 47 50 43 37 34 33 32 33 33 35 38 38 35 34 30 27 25 22 19 17 16 16 18 17 17 17 17 17 16 14 13
39 39 42 42 48 49 51 53 57 57 55 53 45 40 38 34 34 34 32 31 31 35 39 38 39 34 34 31 27 25 22 20 19 18 19 20 20 19 17 18 17 16 16 16
39 35 33 36 38 40 43 44 46 43 41 38 36 34 30 31 31 33 30 31 33 37 41 41 35 30 31 31 28 25 23 21 21 20 19 19 21 21 20 18 17 16 17 19
42 38 37 33 31 34 36 37 36 34 33 31 28 27 28 28 29 30 31 32 37 40 41 42 36 26 26 32 27 24 23 22 22 20 19 19 19 19 20 19 18 19 19 19
44 40 36 33 30 30 29 30 30 28 27 23 24 27 29 28 28 30 34 37 39 40 42 41 36 32 25 32 27 23 22 20 22 22 21 21 21 20 18 20 21 21 20 21
47 44 41 35 30 27 27 27 28 27 25 23 23 25 27 27 30 35 39 39 40 40 42 40 37 33 29 28 26 21 20 21 22 22 23 24 22 21 21 22 22 23 23 24
50 46 42 38 36 34 32 32 29 25 23 24 26 27 28 31 35 40 41 41 38 38 39 37 33 30 28 23 23 20 20 21 22 22 24 25 22 22 23 25 26 27 27 28
52 50 47 44 41 39 38 35 32 28 29 30 30 30 33 34 38 43 43 38 35 39 37 33 29 26 23 21 20 19 21 23 22 21 23 23 23 24 26 28 30 31 30 31
53 51 50 49 46 44 41 38 36 36 35 35 34 34 33 38 42 43 38 37 39 37 32 29 26 20 19 20 20 21 23 23 22 23 23 24 26 28 30 31 33 33 34 34